CCA840 LEBL-ZSPD

Flight info

Callsign CCA840
Flight time 12h 45m
Altitude 32000
Route AGENA M985 LUMAS DCT UNANA DCT STP DCT RAPED DCT PIGOS DCT EKSID DCT NOSTA DCT NOPMU DCT TAGIP/N0483F340 DCT GOGEM DCT LENIZ/N0482F330 DCT MEBEK DCT NENUM DCT BEPAS DCT OKL DCT LEGAZ DCT TOMTI DCT DIMEX DCT NIKMI DCT GOMED/K0882F330 DCT RUSNE/N0477F330 DCT BERIL/N0480F350 DCT VALGA DCT TITOV T635 PIRUS/K0895F350 T635 SADER T580 ADMUR G117 XV R229 DILOR/K0878F370 R229 BA R104 ABK A308 TR P982 DARNO/K0876S1130 Y746 NIXAL B208 BAXOD/K0874S1190 B208 CGO W129 KAMDA W128 FYG B208 HFE R343 EKIMU
Aircraft B77W/H-SDE1E2E3FGHIJ2J3J4J5M1RWXY/LB1D1

Departure

Time 2026-04-29 18:12
Airport Josep Tarradellas Barcelona-El Prat Airport (LEBL)

Arrival

Time 2026-04-30 06:58
Airport Shanghai Pudong International Airport (ZSPD)
Time Latitude Longitude Altitude Speed Heading
2026-04-29 17:46 41.30590 2.08456 28 ft 0 kts 65°
2026-04-29 18:01 41.30586 2.08472 28 ft 3 kts 117°
2026-04-29 18:01 41.30567 2.08473 27 ft 3 kts 195°
2026-04-29 18:01 41.30538 2.08462 27 ft 5 kts 197°
2026-04-29 18:01 41.30502 2.08465 26 ft 5 kts 157°
2026-04-29 18:02 41.30473 2.08498 32 ft 6 kts 136°
2026-04-29 18:02 41.30438 2.08531 28 ft 7 kts 149°
2026-04-29 18:02 41.30390 2.08562 29 ft 9 kts 154°
2026-04-29 18:02 41.30329 2.08598 25 ft 10 kts 165°
2026-04-29 18:03 41.30273 2.08553 23 ft 10 kts 236°
2026-04-29 18:03 41.30242 2.08470 25 ft 10 kts 245°
2026-04-29 18:03 41.30212 2.08385 26 ft 10 kts 245°
2026-04-29 18:03 41.30183 2.08301 26 ft 10 kts 245°
2026-04-29 18:04 41.30153 2.08216 26 ft 10 kts 245°
2026-04-29 18:04 41.30124 2.08130 26 ft 10 kts 246°
2026-04-29 18:04 41.30096 2.08044 23 ft 10 kts 246°
2026-04-29 18:04 41.30067 2.07958 25 ft 10 kts 244°
2026-04-29 18:05 41.30036 2.07873 24 ft 10 kts 244°
2026-04-29 18:05 41.30007 2.07787 24 ft 10 kts 245°
2026-04-29 18:05 41.29977 2.07701 23 ft 10 kts 245°
2026-04-29 18:05 41.29948 2.07615 22 ft 10 kts 245°
2026-04-29 18:06 41.29919 2.07529 22 ft 10 kts 245°
2026-04-29 18:06 41.29890 2.07444 21 ft 10 kts 245°
2026-04-29 18:06 41.29860 2.07358 21 ft 10 kts 245°
2026-04-29 18:06 41.29831 2.07271 21 ft 11 kts 245°
2026-04-29 18:07 41.29803 2.07178 22 ft 11 kts 250°
2026-04-29 18:07 41.29773 2.07086 21 ft 11 kts 245°
2026-04-29 18:07 41.29742 2.06995 22 ft 11 kts 245°
2026-04-29 18:07 41.29711 2.06904 23 ft 11 kts 245°
2026-04-29 18:08 41.29678 2.06810 25 ft 11 kts 245°
2026-04-29 18:08 41.29656 2.06745 23 ft 13 kts 245°
2026-04-29 18:08 41.29610 2.06610 23 ft 18 kts 245°
2026-04-29 18:08 41.29571 2.06497 24 ft 11 kts 245°
2026-04-29 18:09 41.29505 2.06457 20 ft 12 kts 166°
2026-04-29 18:09 41.29429 2.06498 19 ft 12 kts 156°
2026-04-29 18:09 41.29400 2.06515 19 ft 0 kts 155°
2026-04-29 18:10 41.29399 2.06516 19 ft 0 kts 155°
2026-04-29 18:10 41.29398 2.06516 19 ft 0 kts 155°
2026-04-29 18:10 41.29395 2.06518 19 ft 1 kts 155°
2026-04-29 18:10 41.29363 2.06538 19 ft 7 kts 155°
2026-04-29 18:11 41.29318 2.06565 18 ft 7 kts 155°
2026-04-29 18:11 41.29289 2.06583 19 ft 3 kts 152°
2026-04-29 18:11 41.29288 2.06610 19 ft 3 kts 75°
2026-04-29 18:11 41.29314 2.06699 19 ft 28 kts 66°
2026-04-29 18:12 41.29526 2.07315 26 ft 118 kts 65°
2026-04-29 18:12 41.29980 2.08661 71 ft 195 kts 66°
2026-04-29 18:12 41.30537 2.10382 985 ft 207 kts 65°
2026-04-29 18:12 41.31141 2.12119 2264 ft 215 kts 66°
2026-04-29 18:13 41.31797 2.14011 2676 ft 233 kts 67°
2026-04-29 18:13 41.32509 2.16063 3078 ft 251 kts 67°
2026-04-29 18:13 41.33134 2.18240 3663 ft 255 kts 83°
2026-04-29 18:13 41.32989 2.20564 4216 ft 255 kts 102°
2026-04-29 18:14 41.32953 2.22936 4787 ft 262 kts 82°
2026-04-29 18:14 41.33317 2.25356 5351 ft 270 kts 81°
2026-04-29 18:14 41.33634 2.27839 6038 ft 275 kts 83°
2026-04-29 18:14 41.33913 2.30373 6729 ft 278 kts 84°
2026-04-29 18:15 41.34172 2.32930 7426 ft 280 kts 85°
2026-04-29 18:15 41.34420 2.35517 8140 ft 283 kts 85°
2026-04-29 18:15 41.34663 2.38135 8818 ft 287 kts 86°
2026-04-29 18:15 41.34902 2.40787 9507 ft 291 kts 85°
2026-04-29 18:16 41.35139 2.43441 10148 ft 294 kts 85°
2026-04-29 18:16 41.35382 2.46202 10527 ft 310 kts 85°
2026-04-29 18:16 41.35640 2.49159 10688 ft 333 kts 85°
2026-04-29 18:16 41.35917 2.52327 10866 ft 356 kts 85°
2026-04-29 18:17 41.36211 2.55699 11040 ft 378 kts 85°
2026-04-29 18:17 41.36518 2.59245 11451 ft 392 kts 85°
2026-04-29 18:17 41.36906 2.62871 12050 ft 399 kts 79°
2026-04-29 18:17 41.37610 2.66488 12646 ft 408 kts 75°
2026-04-29 18:18 41.38472 2.70110 13417 ft 412 kts 72°
2026-04-29 18:18 41.39369 2.73751 14104 ft 417 kts 72°
2026-04-29 18:18 41.40253 2.77408 14730 ft 422 kts 73°
2026-04-29 18:18 41.41140 2.81198 15447 ft 426 kts 73°
2026-04-29 18:19 41.42006 2.84997 16098 ft 430 kts 74°
2026-04-29 18:19 41.42865 2.88832 16748 ft 435 kts 74°
2026-04-29 18:19 41.43725 2.92712 17398 ft 439 kts 74°
2026-04-29 18:19 41.44593 2.96640 18022 ft 444 kts 74°
2026-04-29 18:20 41.45467 3.00603 18586 ft 448 kts 74°
2026-04-29 18:20 41.46350 3.04610 19144 ft 452 kts 74°
2026-04-29 18:20 41.47238 3.08646 19711 ft 455 kts 74°
2026-04-29 18:20 41.48133 3.12711 20258 ft 459 kts 74°
2026-04-29 18:21 41.49032 3.16808 20820 ft 462 kts 74°
2026-04-29 18:21 41.49899 3.20928 21516 ft 461 kts 76°
2026-04-29 18:21 41.50624 3.25074 22293 ft 458 kts 78°
2026-04-29 18:21 41.51285 3.29224 23053 ft 457 kts 78°
2026-04-29 18:22 41.51937 3.33362 23768 ft 455 kts 78°
2026-04-29 18:22 41.52602 3.37481 24409 ft 453 kts 78°
2026-04-29 18:22 41.53279 3.41577 25035 ft 451 kts 77°
2026-04-29 18:22 41.53958 3.45652 25658 ft 449 kts 78°
2026-04-29 18:23 41.54636 3.49722 26278 ft 448 kts 78°
2026-04-29 18:23 41.55308 3.53771 26882 ft 446 kts 78°
2026-04-29 18:23 41.55976 3.57806 27499 ft 444 kts 78°
2026-04-29 18:23 41.56631 3.61778 28094 ft 443 kts 78°
2026-04-29 18:24 41.57292 3.65785 28698 ft 441 kts 78°
2026-04-29 18:24 41.57948 3.69781 29297 ft 440 kts 78°
2026-04-29 18:24 41.58601 3.73756 29866 ft 438 kts 78°
2026-04-29 18:24 41.59251 3.77730 30353 ft 437 kts 78°
2026-04-29 18:25 41.59899 3.81692 30776 ft 436 kts 78°
2026-04-29 18:25 41.60540 3.85629 31272 ft 433 kts 78°
2026-04-29 18:25 41.61179 3.89576 31528 ft 437 kts 78°
2026-04-29 18:25 41.61820 3.93573 31692 ft 442 kts 78°
2026-04-29 18:26 41.62466 3.97611 31894 ft 446 kts 78°
2026-04-29 18:26 41.63767 4.05775 31975 ft 449 kts 78°
2026-04-29 18:27 41.65055 4.13879 31971 ft 443 kts 78°
2026-04-29 18:27 41.66329 4.21928 31985 ft 442 kts 78°
2026-04-29 18:28 41.67594 4.29964 31987 ft 442 kts 79°
2026-04-29 18:28 41.68859 4.38043 31990 ft 445 kts 79°
2026-04-29 18:29 41.70126 4.46167 32002 ft 448 kts 79°
2026-04-29 18:29 41.71399 4.54365 31985 ft 451 kts 79°
2026-04-29 18:30 41.73144 4.62362 31986 ft 448 kts 58°
2026-04-29 18:30 41.75119 4.65563 31986 ft 448 kts 39°
2026-04-29 18:30 41.77696 4.67883 32007 ft 447 kts 25°
2026-04-29 18:30 41.80623 4.69266 31982 ft 446 kts 13°
2026-04-29 18:31 41.83646 4.70189 32009 ft 447 kts 12°
2026-04-29 18:31 41.89751 4.71976 32009 ft 451 kts 12°
2026-04-29 18:32 41.95899 4.73827 31997 ft 454 kts 12°
2026-04-29 18:32 42.05137 4.76715 31990 ft 454 kts 13°
2026-04-29 18:33 42.11277 4.78660 31988 ft 452 kts 13°
2026-04-29 18:33 42.17394 4.80601 31987 ft 450 kts 13°
2026-04-29 18:34 42.22454 4.82208 31992 ft 449 kts 13°
2026-04-29 18:34 42.29542 4.84463 31996 ft 447 kts 13°
2026-04-29 18:35 42.35596 4.86393 31999 ft 447 kts 13°
2026-04-29 18:35 42.41655 4.88327 32003 ft 448 kts 13°
2026-04-29 18:36 42.47733 4.90272 32008 ft 450 kts 13°
2026-04-29 18:36 42.53791 4.92215 32003 ft 451 kts 13°
2026-04-29 18:37 42.59915 4.94183 32008 ft 453 kts 13°
2026-04-29 18:37 42.66059 4.96161 32010 ft 454 kts 13°
2026-04-29 18:38 42.72201 4.98142 32000 ft 453 kts 13°
2026-04-29 18:38 42.78328 5.00123 32001 ft 452 kts 13°
2026-04-29 18:39 42.84434 5.02101 31998 ft 450 kts 13°
2026-04-29 18:39 42.90514 5.04075 32002 ft 449 kts 13°
2026-04-29 18:40 42.96577 5.06047 32005 ft 448 kts 13°
2026-04-29 18:40 43.02645 5.08024 32013 ft 448 kts 13°
2026-04-29 18:41 43.14830 5.12007 32008 ft 452 kts 12°
2026-04-29 18:42 43.20956 5.14016 32006 ft 453 kts 13°
2026-04-29 18:42 43.27094 5.16032 31996 ft 454 kts 13°
2026-04-29 18:43 43.33231 5.18053 31993 ft 453 kts 12°
2026-04-29 18:43 43.36200 5.19405 31978 ft 450 kts 28°
2026-04-29 18:43 43.38710 5.21930 32009 ft 449 kts 47°
2026-04-29 18:44 43.40504 5.25417 31993 ft 448 kts 65°
2026-04-29 18:44 43.41506 5.29454 32011 ft 447 kts 79°
2026-04-29 18:44 43.41850 5.33698 31991 ft 448 kts 93°
2026-04-29 18:44 43.41422 5.37923 32009 ft 447 kts 102°
2026-04-29 18:45 43.40040 5.46345 32007 ft 455 kts 104°
2026-04-29 18:45 43.38627 5.54840 32002 ft 456 kts 103°
2026-04-29 18:46 43.37279 5.63346 32000 ft 455 kts 103°
2026-04-29 18:46 43.35963 5.71845 32004 ft 454 kts 102°
2026-04-29 18:47 43.34651 5.80307 32014 ft 452 kts 102°
2026-04-29 18:47 43.33332 5.88761 32010 ft 453 kts 102°
2026-04-29 18:48 43.32002 5.97230 32014 ft 454 kts 102°
2026-04-29 18:48 43.30661 6.05722 32025 ft 455 kts 102°
2026-04-29 18:49 43.29321 6.14166 32030 ft 455 kts 102°
2026-04-29 18:49 43.27969 6.22641 32019 ft 454 kts 102°
2026-04-29 18:50 43.26616 6.31086 32015 ft 452 kts 102°
2026-04-29 18:50 43.25262 6.39495 32017 ft 451 kts 102°
2026-04-29 18:51 43.23908 6.47871 32021 ft 449 kts 102°
2026-04-29 18:51 43.22659 6.56228 32001 ft 445 kts 92°
2026-04-29 18:52 43.22905 6.60421 32025 ft 442 kts 74°
2026-04-29 18:52 43.24008 6.64362 32028 ft 445 kts 58°
2026-04-29 18:52 43.27663 6.71276 32027 ft 451 kts 51°
2026-04-29 18:53 43.31436 6.78201 32027 ft 454 kts 52°
2026-04-29 18:53 43.35153 6.85218 32021 ft 453 kts 52°
2026-04-29 18:54 43.38834 6.92214 32013 ft 450 kts 53°
2026-04-29 18:54 43.42472 6.99161 32015 ft 446 kts 52°
2026-04-29 18:55 43.46081 7.06068 32015 ft 443 kts 52°
2026-04-29 18:55 43.49067 7.11791 32020 ft 443 kts 52°
2026-04-29 18:56 43.52661 7.18695 32023 ft 444 kts 53°
2026-04-29 18:56 43.56267 7.25637 32027 ft 447 kts 53°
2026-04-29 18:57 43.60478 7.33765 32035 ft 450 kts 52°
2026-04-29 18:57 43.63528 7.39665 32029 ft 452 kts 52°
2026-04-29 18:58 43.67183 7.46743 32026 ft 453 kts 52°
2026-04-29 18:58 43.70837 7.53834 32020 ft 453 kts 52°
2026-04-29 18:59 43.74483 7.60925 32029 ft 452 kts 52°
2026-04-29 18:59 43.78102 7.68008 32014 ft 450 kts 52°
2026-04-29 19:00 43.81882 7.74868 32022 ft 445 kts 44°
2026-04-29 19:00 43.86466 7.80535 32041 ft 440 kts 34°
2026-04-29 19:01 43.91344 7.85654 32039 ft 440 kts 35°
2026-04-29 19:01 43.96135 7.90972 32046 ft 443 kts 40°
2026-04-29 19:02 44.00557 7.96893 32017 ft 445 kts 41°
2026-04-29 19:02 44.04987 8.02916 32020 ft 446 kts 41°
2026-04-29 19:03 44.09435 8.08941 32010 ft 447 kts 41°
2026-04-29 19:03 44.13893 8.14966 32028 ft 447 kts 41°
2026-04-29 19:04 44.18350 8.20993 32034 ft 446 kts 41°
2026-04-29 19:04 44.22799 8.27020 32032 ft 446 kts 41°
2026-04-29 19:05 44.27237 8.33048 32035 ft 445 kts 41°
2026-04-29 19:05 44.31665 8.39076 32049 ft 444 kts 40°
2026-04-29 19:06 44.36085 8.45105 32052 ft 445 kts 40°
2026-04-29 19:07 44.42739 8.54207 32051 ft 447 kts 40°
2026-04-29 19:07 44.47188 8.60312 32047 ft 449 kts 40°
2026-04-29 19:08 44.51644 8.66439 32046 ft 449 kts 41°
2026-04-29 19:08 44.56099 8.72582 32056 ft 449 kts 41°
2026-04-29 19:09 44.60552 8.78732 32045 ft 450 kts 41°
2026-04-29 19:09 44.65007 8.84896 32047 ft 449 kts 41°
2026-04-29 19:10 44.69455 8.91069 32042 ft 450 kts 41°
2026-04-29 19:10 44.73904 8.97257 32046 ft 450 kts 41°
2026-04-29 19:11 44.78318 9.03410 32051 ft 450 kts 41°
2026-04-29 19:11 44.82758 9.09613 32058 ft 450 kts 41°
2026-04-29 19:12 44.87237 9.15887 32056 ft 452 kts 40°
2026-04-29 19:12 44.91665 9.22100 32060 ft 453 kts 40°
2026-04-29 19:13 44.96129 9.28381 32061 ft 453 kts 40°
2026-04-29 19:13 45.00590 9.34672 32083 ft 454 kts 40°
2026-04-29 19:14 45.05059 9.40989 32064 ft 455 kts 40°
2026-04-29 19:14 45.09530 9.47324 32070 ft 455 kts 40°
2026-04-29 19:15 45.13997 9.53668 32054 ft 455 kts 40°
2026-04-29 19:15 45.18463 9.60026 32071 ft 455 kts 40°
2026-04-29 19:16 45.22929 9.66398 32070 ft 455 kts 40°
2026-04-29 19:16 45.27394 9.72782 32078 ft 456 kts 40°
2026-04-29 19:17 45.31859 9.79183 32082 ft 456 kts 40°
2026-04-29 19:17 45.36326 9.85603 32093 ft 457 kts 40°
2026-04-29 19:18 45.40788 9.92030 32087 ft 457 kts 40°
2026-04-29 19:18 45.45263 9.98491 32082 ft 458 kts 40°
2026-04-29 19:19 45.49733 10.04961 32082 ft 458 kts 40°
2026-04-29 19:19 45.54196 10.11438 32085 ft 458 kts 40°
2026-04-29 19:20 45.58635 10.17893 32083 ft 459 kts 40°
2026-04-29 19:20 45.63133 10.24450 32093 ft 460 kts 40°
2026-04-29 19:21 45.67614 10.30997 32095 ft 461 kts 40°
2026-04-29 19:21 45.72069 10.37528 32122 ft 463 kts 39°
2026-04-29 19:22 45.76560 10.44121 32123 ft 463 kts 39°
2026-04-29 19:22 45.81044 10.50723 32107 ft 461 kts 39°
2026-04-29 19:23 45.85510 10.57314 32135 ft 461 kts 39°
2026-04-29 19:23 45.89982 10.63929 32137 ft 464 kts 39°
2026-04-29 19:24 45.94835 10.69847 32159 ft 453 kts 27°
2026-04-29 19:24 46.00240 10.74298 32154 ft 446 kts 20°
2026-04-29 19:25 46.05753 10.78399 32150 ft 446 kts 20°
2026-04-29 19:25 46.11252 10.82525 32185 ft 445 kts 19°
2026-04-29 19:26 46.16734 10.86681 32164 ft 445 kts 19°
2026-04-29 19:26 46.22199 10.90847 32166 ft 443 kts 19°
2026-04-29 19:27 46.27626 10.94994 32170 ft 439 kts 20°
2026-04-29 19:27 46.32965 10.99086 32162 ft 435 kts 19°
2026-04-29 19:28 46.38348 11.03209 32213 ft 442 kts 20°
2026-04-29 19:28 46.43833 11.07416 32148 ft 446 kts 19°
2026-04-29 19:29 46.49290 11.11631 32159 ft 442 kts 19°
2026-04-29 19:29 46.54718 11.15824 32149 ft 442 kts 19°
2026-04-29 19:30 46.60131 11.20017 32151 ft 440 kts 19°
2026-04-29 19:30 46.65550 11.24220 32159 ft 442 kts 19°
2026-04-29 19:31 46.70805 11.28306 32138 ft 442 kts 20°
2026-04-29 19:31 46.76221 11.32530 32152 ft 441 kts 19°
2026-04-29 19:32 46.81641 11.36762 32157 ft 442 kts 19°
2026-04-29 19:32 46.87070 11.41014 32176 ft 443 kts 20°
2026-04-29 19:33 46.92507 11.45280 32163 ft 443 kts 20°
2026-04-29 19:33 46.97945 11.49553 32167 ft 443 kts 19°
2026-04-29 19:34 47.03629 11.52448 32175 ft 426 kts
2026-04-29 19:34 47.09436 11.53216 32203 ft 415 kts 356°
2026-04-29 19:35 47.15204 11.53526 32184 ft 414 kts 356°
2026-04-29 19:35 47.20940 11.53861 32206 ft 412 kts 356°
2026-04-29 19:36 47.26678 11.54228 32227 ft 414 kts 358°
2026-04-29 19:36 47.32428 11.54603 32218 ft 417 kts 358°
2026-04-29 19:37 47.38251 11.54986 32218 ft 421 kts 359°
2026-04-29 19:37 47.44114 11.55371 32255 ft 422 kts 360°
2026-04-29 19:38 47.49998 11.55761 32224 ft 423 kts 360°
2026-04-29 19:38 47.55877 11.56150 32228 ft 423 kts 360°
2026-04-29 19:39 47.60759 11.56473 32221 ft 421 kts 360°
2026-04-29 19:39 47.63321 11.56959 32234 ft 422 kts 12°
2026-04-29 19:39 47.65820 11.58446 32235 ft 426 kts 27°
2026-04-29 19:40 47.69343 11.62628 32224 ft 431 kts 45°
2026-04-29 19:40 47.71266 11.65916 32242 ft 431 kts 46°
2026-04-29 19:41 47.75135 11.72747 32239 ft 433 kts 46°
2026-04-29 19:41 47.79011 11.79535 32243 ft 435 kts 46°
2026-04-29 19:42 47.80787 11.82615 32244 ft 436 kts 46°
2026-04-29 19:42 47.84696 11.89364 32242 ft 432 kts 46°
2026-04-29 19:43 47.88588 11.96084 32245 ft 428 kts 46°
2026-04-29 19:43 47.92496 12.02845 32254 ft 432 kts 46°
2026-04-29 19:44 47.96433 12.09674 32254 ft 435 kts 46°
2026-04-29 19:44 48.00380 12.16542 32251 ft 436 kts 46°
2026-04-29 19:45 48.04271 12.23334 32251 ft 423 kts 47°
2026-04-29 19:45 48.07425 12.28851 32252 ft 419 kts 47°
2026-04-29 19:46 48.11212 12.35483 32258 ft 420 kts 47°
2026-04-29 19:46 48.15013 12.42158 32271 ft 422 kts 47°
2026-04-29 19:47 48.18826 12.48873 32273 ft 424 kts 47°
2026-04-29 19:47 48.22680 12.55606 32267 ft 426 kts 44°
2026-04-29 19:48 48.27108 12.61546 32282 ft 424 kts 37°
2026-04-29 19:48 48.31683 12.67129 32275 ft 424 kts 37°
2026-04-29 19:49 48.36211 12.72715 32267 ft 423 kts 37°
2026-04-29 19:49 48.40721 12.78324 32217 ft 417 kts 38°
2026-04-29 19:49 48.42946 12.81098 31973 ft 415 kts 38°
2026-04-29 19:50 48.45169 12.83872 31640 ft 416 kts 38°
2026-04-29 19:50 48.47399 12.86658 31369 ft 415 kts 38°
2026-04-29 19:50 48.49609 12.89422 31334 ft 411 kts 38°
2026-04-29 19:51 48.54016 12.94983 31280 ft 417 kts 40°
2026-04-29 19:51 48.58094 13.01214 31302 ft 412 kts 44°
2026-04-29 19:52 48.62006 13.07358 31281 ft 402 kts 44°
2026-04-29 19:52 48.65908 13.13461 31295 ft 399 kts 44°
2026-04-29 19:53 48.69728 13.19428 31292 ft 396 kts 43°
2026-04-29 19:53 48.73562 13.25428 31294 ft 396 kts 43°
2026-04-29 19:54 48.79324 13.34470 31309 ft 399 kts 44°
2026-04-29 19:54 48.83173 13.40530 31314 ft 399 kts 44°
2026-04-29 19:55 48.87293 13.46111 31318 ft 396 kts 33°
2026-04-29 19:55 48.92000 13.50363 31334 ft 393 kts 27°
2026-04-29 19:56 48.96788 13.54346 31341 ft 391 kts 28°
2026-04-29 19:56 49.01534 13.58318 31345 ft 387 kts 28°
2026-04-29 19:57 49.05434 13.61599 31346 ft 383 kts 28°
2026-04-29 19:57 49.10863 13.66183 31346 ft 380 kts 28°
2026-04-29 19:58 49.15474 13.70089 31370 ft 379 kts 29°
2026-04-29 19:58 49.20080 13.73997 31368 ft 379 kts 29°
2026-04-29 19:59 49.24702 13.77929 31367 ft 380 kts 29°
2026-04-29 19:59 49.29333 13.81877 31376 ft 382 kts 29°
2026-04-29 20:00 49.33975 13.85840 31385 ft 382 kts 29°
2026-04-29 20:00 49.38621 13.89818 31395 ft 382 kts 30°
2026-04-29 20:01 49.43255 13.93795 31386 ft 381 kts 30°
2026-04-29 20:01 49.47871 13.97765 31377 ft 379 kts 30°
2026-04-29 20:02 49.52460 14.01720 31442 ft 377 kts 29°
2026-04-29 20:02 49.56271 14.05006 31405 ft 377 kts 29°
2026-04-29 20:03 49.61598 14.09616 31400 ft 375 kts 30°
2026-04-29 20:03 49.66137 14.13556 31401 ft 373 kts 30°
2026-04-29 20:04 49.70649 14.17479 31406 ft 372 kts 30°
2026-04-29 20:04 49.75150 14.21401 31416 ft 371 kts 30°
2026-04-29 20:05 49.79650 14.25328 31420 ft 371 kts 31°
2026-04-29 20:05 49.84147 14.29262 31410 ft 371 kts 31°
2026-04-29 20:06 49.88631 14.33194 31411 ft 370 kts 31°
2026-04-29 20:06 49.93082 14.37105 31426 ft 370 kts 31°
2026-04-29 20:07 49.97558 14.41047 31415 ft 370 kts 31°
2026-04-29 20:07 50.02024 14.44987 31422 ft 368 kts 31°
2026-04-29 20:08 50.05753 14.48283 31428 ft 368 kts 31°
2026-04-29 20:08 50.10913 14.52856 31430 ft 367 kts 31°
2026-04-29 20:09 50.15348 14.56795 31431 ft 367 kts 31°
2026-04-29 20:09 50.19778 14.60738 31429 ft 367 kts 31°
2026-04-29 20:10 50.24211 14.64693 31425 ft 367 kts 31°
2026-04-29 20:10 50.28645 14.68657 31424 ft 367 kts 31°
2026-04-29 20:11 50.33083 14.72632 31427 ft 368 kts 31°
2026-04-29 20:11 50.37523 14.76619 31422 ft 368 kts 31°
2026-04-29 20:12 50.41968 14.80617 31434 ft 368 kts 32°
2026-04-29 20:12 50.46401 14.84615 31422 ft 367 kts 32°
2026-04-29 20:13 50.50076 14.87936 31434 ft 366 kts 32°
2026-04-29 20:13 50.55221 14.92595 31433 ft 364 kts 32°
2026-04-29 20:14 50.59571 14.96542 31444 ft 363 kts 32°
2026-04-29 20:14 50.63943 15.00520 31446 ft 362 kts 32°
2026-04-29 20:15 50.68292 15.04484 31445 ft 361 kts 32°
2026-04-29 20:15 50.72627 15.08445 31446 ft 359 kts 32°
2026-04-29 20:16 50.76951 15.12404 31449 ft 359 kts 32°
2026-04-29 20:16 50.81265 15.16362 31454 ft 359 kts 32°
2026-04-29 20:17 50.85579 15.20329 31481 ft 359 kts 32°
2026-04-29 20:17 50.89906 15.24315 31447 ft 359 kts 32°
2026-04-29 20:18 50.94220 15.28303 31453 ft 358 kts 33°
2026-04-29 20:18 50.98273 15.32854 31452 ft 356 kts 38°
2026-04-29 20:19 51.02201 15.37643 31459 ft 356 kts 38°
2026-04-29 20:19 51.06123 15.42424 31460 ft 355 kts 38°
2026-04-29 20:20 51.10033 15.47193 31461 ft 354 kts 38°
2026-04-29 20:20 51.13937 15.51961 31457 ft 354 kts 38°
2026-04-29 20:21 51.17838 15.56735 31450 ft 353 kts 38°
2026-04-29 20:21 51.21734 15.61513 31455 ft 353 kts 38°
2026-04-29 20:22 51.25631 15.66302 31459 ft 354 kts 38°
2026-04-29 20:22 51.29501 15.71070 31453 ft 354 kts 38°
2026-04-29 20:23 51.33422 15.75910 31460 ft 354 kts 38°
2026-04-29 20:23 51.37288 15.80693 31456 ft 354 kts 38°
2026-04-29 20:24 51.41183 15.85522 31456 ft 354 kts 38°
2026-04-29 20:24 51.45068 15.90350 31456 ft 353 kts 38°
2026-04-29 20:25 51.48944 15.95177 31452 ft 352 kts 38°
2026-04-29 20:25 51.52801 15.99992 31455 ft 351 kts 38°
2026-04-29 20:26 51.56647 16.04802 31458 ft 350 kts 38°
2026-04-29 20:26 51.60482 16.09609 31466 ft 350 kts 38°
2026-04-29 20:27 51.63026 16.12785 31458 ft 350 kts 37°
2026-04-29 20:27 51.68397 16.18743 31472 ft 351 kts 35°
2026-04-29 20:28 51.72448 16.23146 31471 ft 351 kts 35°
2026-04-29 20:28 51.76492 16.27563 31471 ft 351 kts 35°
2026-04-29 20:29 51.80498 16.31960 31455 ft 350 kts 35°
2026-04-29 20:29 51.84524 16.36394 31457 ft 350 kts 35°
2026-04-29 20:30 51.88546 16.40835 31469 ft 350 kts 35°
2026-04-29 20:30 51.92563 16.45280 31465 ft 349 kts 35°
2026-04-29 20:31 51.96572 16.49727 31466 ft 349 kts 35°
2026-04-29 20:31 51.99903 16.53429 31469 ft 349 kts 35°
2026-04-29 20:32 52.04590 16.58650 31468 ft 349 kts 35°
2026-04-29 20:32 52.07919 16.62367 31470 ft 349 kts 35°
2026-04-29 20:33 52.11922 16.66845 31470 ft 349 kts 35°
2026-04-29 20:33 52.15922 16.71329 31466 ft 349 kts 35°
2026-04-29 20:34 52.19921 16.75822 31468 ft 349 kts 35°
2026-04-29 20:34 52.23917 16.80323 31460 ft 349 kts 35°
2026-04-29 20:35 52.27913 16.84832 31463 ft 349 kts 35°
2026-04-29 20:35 52.31907 16.89351 31474 ft 349 kts 35°
2026-04-29 20:36 52.35902 16.93880 31474 ft 349 kts 35°
2026-04-29 20:36 52.39891 16.98412 31475 ft 349 kts 35°
2026-04-29 20:37 52.43878 17.02953 31477 ft 349 kts 35°
2026-04-29 20:37 52.47865 17.07503 31475 ft 349 kts 35°
2026-04-29 20:38 52.51853 17.12065 31471 ft 349 kts 35°
2026-04-29 20:38 52.55838 17.16634 31477 ft 349 kts 35°
2026-04-29 20:39 52.59822 17.21212 31479 ft 349 kts 35°
2026-04-29 20:39 52.63806 17.25801 31476 ft 350 kts 35°
2026-04-29 20:40 52.67762 17.30367 31490 ft 350 kts 35°
2026-04-29 20:40 52.71750 17.34981 31484 ft 350 kts 35°
2026-04-29 20:41 52.75733 17.39600 31483 ft 350 kts 35°
2026-04-29 20:41 52.79709 17.44220 31482 ft 349 kts 35°
2026-04-29 20:42 52.83674 17.48839 31478 ft 348 kts 35°
2026-04-29 20:42 52.87629 17.53457 31485 ft 348 kts 35°
2026-04-29 20:43 52.91582 17.58083 31482 ft 348 kts 35°
2026-04-29 20:43 52.95536 17.62720 31479 ft 348 kts 35°
2026-04-29 20:44 52.99489 17.67368 31481 ft 349 kts 35°
2026-04-29 20:44 53.03443 17.72026 31485 ft 349 kts 35°
2026-04-29 20:45 53.07405 17.76704 31484 ft 349 kts 35°
2026-04-29 20:45 53.11369 17.81396 31455 ft 350 kts 35°
2026-04-29 20:46 53.15335 17.86102 31438 ft 350 kts 35°
2026-04-29 20:46 53.19299 17.90817 31460 ft 350 kts 35°
2026-04-29 20:47 53.23256 17.95533 31462 ft 350 kts 35°
2026-04-29 20:47 53.27184 18.00225 31449 ft 349 kts 35°
2026-04-29 20:48 53.31131 18.04951 31473 ft 349 kts 35°
2026-04-29 20:48 53.35095 18.09709 31481 ft 348 kts 35°
2026-04-29 20:49 53.39032 18.14445 31483 ft 348 kts 35°
2026-04-29 20:49 53.42938 18.19155 31490 ft 348 kts 35°
2026-04-29 20:50 53.46872 18.23911 31489 ft 349 kts 35°
2026-04-29 20:50 53.50805 18.28674 31491 ft 349 kts 35°
2026-04-29 20:51 53.54738 18.33451 31489 ft 349 kts 35°
2026-04-29 20:51 53.58672 18.38239 31480 ft 349 kts 35°
2026-04-29 20:52 53.62604 18.43036 31487 ft 349 kts 35°
2026-04-29 20:52 53.66527 18.47833 31488 ft 348 kts 35°
2026-04-29 20:53 53.70447 18.52638 31526 ft 348 kts 35°
2026-04-29 20:53 53.74371 18.57459 31497 ft 349 kts 35°
2026-04-29 20:54 53.80275 18.64736 31491 ft 351 kts 35°
2026-04-29 20:55 53.84217 18.69608 31494 ft 351 kts 35°
2026-04-29 20:55 53.88163 18.74496 31491 ft 351 kts 35°
2026-04-29 20:56 53.92108 18.79395 31488 ft 351 kts 35°
2026-04-29 20:56 53.96050 18.84303 31485 ft 351 kts 35°
2026-04-29 20:57 53.99983 18.89210 31479 ft 350 kts 35°
2026-04-29 20:57 54.03903 18.94114 31483 ft 350 kts 35°
2026-04-29 20:58 54.07792 18.98990 31484 ft 349 kts 35°
2026-04-29 20:58 54.11697 19.03898 31483 ft 349 kts 35°
2026-04-29 20:59 54.15602 19.08816 31483 ft 349 kts 35°
2026-04-29 20:59 54.19431 19.13909 31482 ft 350 kts 40°
2026-04-29 21:00 54.22800 19.19935 31482 ft 352 kts 46°
2026-04-29 21:00 54.25934 19.26378 31484 ft 352 kts 46°
2026-04-29 21:01 54.29064 19.32838 31480 ft 353 kts 46°
2026-04-29 21:01 54.32201 19.39305 31479 ft 353 kts 46°
2026-04-29 21:02 54.35338 19.45779 31480 ft 353 kts 46°
2026-04-29 21:02 54.38474 19.52264 31474 ft 353 kts 46°
2026-04-29 21:03 54.41607 19.58757 31472 ft 353 kts 46°
2026-04-29 21:03 54.44740 19.65271 31481 ft 355 kts 46°
2026-04-29 21:04 54.47819 19.71926 31473 ft 356 kts 48°
2026-04-29 21:04 54.50871 19.78666 31469 ft 357 kts 48°
2026-04-29 21:05 54.53926 19.85421 31473 ft 358 kts 48°
2026-04-29 21:05 54.56988 19.92192 31471 ft 358 kts 48°
2026-04-29 21:06 54.60047 19.98968 31469 ft 358 kts 48°
2026-04-29 21:06 54.63083 20.05710 31470 ft 358 kts 48°
2026-04-29 21:07 54.66129 20.12492 31465 ft 357 kts 48°
2026-04-29 21:07 54.69169 20.19276 31465 ft 357 kts 48°
2026-04-29 21:08 54.72204 20.26068 31464 ft 357 kts 48°
2026-04-29 21:08 54.75233 20.32867 31459 ft 357 kts 48°
2026-04-29 21:09 54.78261 20.39681 31459 ft 357 kts 48°
2026-04-29 21:09 54.81286 20.46506 31456 ft 357 kts 48°
2026-04-29 21:10 54.84315 20.53360 31458 ft 359 kts 48°
2026-04-29 21:10 54.87355 20.60259 31456 ft 360 kts 48°
2026-04-29 21:11 54.90401 20.67191 31448 ft 361 kts 48°
2026-04-29 21:11 54.93447 20.74144 31452 ft 362 kts 48°
2026-04-29 21:12 54.96494 20.81117 31442 ft 362 kts 48°
2026-04-29 21:12 54.99534 20.88094 31450 ft 361 kts 48°
2026-04-29 21:13 55.02565 20.95070 31451 ft 361 kts 48°
2026-04-29 21:13 55.05590 21.02053 31444 ft 361 kts 48°
2026-04-29 21:14 55.08609 21.09040 31440 ft 360 kts 48°
2026-04-29 21:14 55.11624 21.16038 31439 ft 361 kts 48°
2026-04-29 21:15 55.14634 21.23045 31442 ft 361 kts 48°
2026-04-29 21:15 55.17647 21.30078 31435 ft 361 kts 49°
2026-04-29 21:16 55.20636 21.37072 31434 ft 361 kts 49°
2026-04-29 21:16 55.23713 21.44030 31424 ft 361 kts 44°
2026-04-29 21:17 55.27256 21.50211 31422 ft 359 kts 40°
2026-04-29 21:17 55.30858 21.56286 31421 ft 360 kts 40°
2026-04-29 21:18 55.34460 21.62391 31415 ft 360 kts 40°
2026-04-29 21:18 55.38057 21.68513 31420 ft 360 kts 41°
2026-04-29 21:19 55.41651 21.74654 31435 ft 360 kts 41°
2026-04-29 21:19 55.45240 21.80803 31440 ft 360 kts 40°
2026-04-29 21:20 55.48822 21.86958 31430 ft 360 kts 40°
2026-04-29 21:20 55.52399 21.93120 31428 ft 360 kts 40°
2026-04-29 21:21 55.55374 21.98257 31410 ft 360 kts 41°
2026-04-29 21:21 55.59551 22.05489 31412 ft 360 kts 41°
2026-04-29 21:22 55.62521 22.10646 31431 ft 360 kts 41°
2026-04-29 21:22 55.66093 22.16864 31419 ft 360 kts 40°
2026-04-29 21:23 55.69666 22.23100 31423 ft 360 kts 41°
2026-04-29 21:23 55.73237 22.29348 31418 ft 361 kts 41°
2026-04-29 21:24 55.76808 22.35615 31409 ft 361 kts 41°
2026-04-29 21:24 55.80377 22.41895 31409 ft 361 kts 41°
2026-04-29 21:25 55.83942 22.48185 31409 ft 361 kts 41°
2026-04-29 21:25 55.87506 22.54491 31408 ft 361 kts 41°
2026-04-29 21:26 55.91068 22.60809 31401 ft 362 kts 41°
2026-04-29 21:26 55.94628 22.67142 31405 ft 361 kts 41°
2026-04-29 21:27 55.98182 22.73482 31404 ft 361 kts 41°
2026-04-29 21:27 56.01712 22.79797 31404 ft 361 kts 41°
2026-04-29 21:28 56.05261 22.86163 31395 ft 362 kts 41°
2026-04-29 21:28 56.08811 22.92547 31405 ft 362 kts 41°
2026-04-29 21:29 56.12359 22.98947 31403 ft 362 kts 41°
2026-04-29 21:29 56.15902 23.05355 31401 ft 362 kts 41°
2026-04-29 21:30 56.19443 23.11778 31398 ft 362 kts 41°
2026-04-29 21:30 56.22981 23.18213 31400 ft 362 kts 41°
2026-04-29 21:31 56.26516 23.24661 31394 ft 362 kts 41°
2026-04-29 21:31 56.30049 23.31123 31398 ft 362 kts 41°
2026-04-29 21:32 56.33582 23.37599 31399 ft 362 kts 41°
2026-04-29 21:32 56.37149 23.43985 31393 ft 360 kts 38°
2026-04-29 21:33 56.40902 23.49954 31392 ft 359 kts 37°
2026-04-29 21:33 56.44648 23.55853 31391 ft 359 kts 37°
2026-04-29 21:34 56.48410 23.61812 31389 ft 360 kts 37°
2026-04-29 21:34 56.52165 23.67789 31391 ft 360 kts 37°
2026-04-29 21:35 56.55920 23.73790 31387 ft 360 kts 37°
2026-04-29 21:35 56.59670 23.79802 31387 ft 360 kts 38°
2026-04-29 21:36 56.63422 23.85835 31386 ft 360 kts 38°
2026-04-29 21:36 56.67172 23.91880 31407 ft 361 kts 38°
2026-04-29 21:37 56.70939 23.97970 31389 ft 363 kts 38°
2026-04-29 21:37 56.74710 24.04086 31384 ft 363 kts 38°
2026-04-29 21:38 56.78488 24.10227 31372 ft 364 kts 38°
2026-04-29 21:38 56.82264 24.16385 31378 ft 364 kts 38°
2026-04-29 21:39 56.86036 24.22553 31372 ft 364 kts 38°
2026-04-29 21:39 56.89805 24.28733 31375 ft 364 kts 38°
2026-04-29 21:40 56.93566 24.34918 31392 ft 363 kts 38°
2026-04-29 21:40 56.97322 24.41112 31369 ft 363 kts 38°
2026-04-29 21:41 57.01075 24.47316 31365 ft 363 kts 38°
2026-04-29 21:41 57.04821 24.53529 31366 ft 363 kts 38°
2026-04-29 21:42 57.08562 24.59751 31381 ft 363 kts 38°
2026-04-29 21:42 57.12310 24.66001 31367 ft 363 kts 38°
2026-04-29 21:43 57.16049 24.72256 31366 ft 363 kts 38°
2026-04-29 21:43 57.19789 24.78528 31366 ft 364 kts 38°
2026-04-29 21:44 57.23525 24.84814 31366 ft 364 kts 38°
2026-04-29 21:44 57.27263 24.91119 31369 ft 364 kts 38°
2026-04-29 21:45 57.30971 24.97393 31367 ft 364 kts 38°
2026-04-29 21:45 57.34728 25.03767 31365 ft 364 kts 38°
2026-04-29 21:46 57.38457 25.10114 31369 ft 364 kts 38°
2026-04-29 21:46 57.42160 25.16432 31367 ft 364 kts 38°
2026-04-29 21:47 57.45883 25.22804 31369 ft 364 kts 38°
2026-04-29 21:47 57.49609 25.29199 31359 ft 364 kts 38°
2026-04-29 21:48 57.53329 25.35603 31356 ft 365 kts 38°
2026-04-29 21:48 57.57047 25.42022 31358 ft 364 kts 38°
2026-04-29 21:49 57.60761 25.48454 31362 ft 365 kts 38°
2026-04-29 21:49 57.64476 25.54905 31356 ft 365 kts 38°
2026-04-29 21:50 57.68196 25.61380 31358 ft 367 kts 38°
2026-04-29 21:50 57.71930 25.67906 31355 ft 368 kts 39°
2026-04-29 21:51 57.75666 25.74452 31348 ft 368 kts 39°
2026-04-29 21:51 57.81244 25.84260 31358 ft 368 kts 39°
2026-04-29 21:52 57.84828 25.91187 31346 ft 373 kts 46°
2026-04-29 21:52 57.87798 25.99261 31346 ft 379 kts 53°
2026-04-29 21:53 57.90418 26.07863 31350 ft 380 kts 54°
2026-04-29 21:53 57.93026 26.16511 31344 ft 380 kts 53°
2026-04-29 21:54 57.95639 26.25159 31342 ft 380 kts 53°
2026-04-29 21:54 57.98253 26.33812 31336 ft 380 kts 53°
2026-04-29 21:55 58.00861 26.42468 31338 ft 380 kts 53°
2026-04-29 21:55 58.03470 26.51157 31318 ft 381 kts 54°
2026-04-29 21:56 58.06073 26.59860 31314 ft 381 kts 54°
2026-04-29 21:56 58.08674 26.68586 31325 ft 381 kts 54°
2026-04-29 21:57 58.11271 26.77335 31343 ft 382 kts 54°
2026-04-29 21:57 58.13867 26.86110 31326 ft 382 kts 54°
2026-04-29 21:58 58.16440 26.94843 31326 ft 382 kts 54°
2026-04-29 21:58 58.19021 27.03638 31318 ft 382 kts 54°
2026-04-29 21:59 58.21593 27.12433 31316 ft 381 kts 54°
2026-04-29 21:59 58.24160 27.21245 31307 ft 381 kts 54°
2026-04-29 22:00 58.26721 27.30060 31310 ft 381 kts 54°
2026-04-29 22:00 58.29275 27.38896 31305 ft 382 kts 54°
2026-04-29 22:01 58.31824 27.47749 31307 ft 382 kts 54°
2026-04-29 22:01 58.34578 27.56306 31323 ft 377 kts 49°
2026-04-29 22:02 58.37548 27.64569 31305 ft 378 kts 49°
2026-04-29 22:02 58.40512 27.72856 31304 ft 379 kts 49°
2026-04-29 22:03 58.43466 27.81169 31293 ft 379 kts 49°
2026-04-29 22:03 58.46416 27.89513 31302 ft 379 kts 49°
2026-04-29 22:04 58.49351 27.97851 31292 ft 377 kts 49°
2026-04-29 22:04 58.52267 28.06164 31286 ft 375 kts 49°
2026-04-29 22:05 58.55160 28.14438 31284 ft 373 kts 49°
2026-04-29 22:06 58.59477 28.26832 31288 ft 373 kts 49°
2026-04-29 22:06 58.62351 28.35122 31288 ft 374 kts 50°
2026-04-29 22:07 58.65229 28.43449 31291 ft 375 kts 50°
2026-04-29 22:07 58.68093 28.51770 31290 ft 376 kts 50°
2026-04-29 22:08 58.70980 28.60185 31284 ft 378 kts 50°
2026-04-29 22:08 58.73870 28.68641 31272 ft 379 kts 50°
2026-04-29 22:09 58.76757 28.77121 31270 ft 378 kts 50°
2026-04-29 22:09 58.79635 28.85606 31266 ft 378 kts 50°
2026-04-29 22:10 58.82502 28.94083 31261 ft 377 kts 50°
2026-04-29 22:10 58.85358 29.02563 31262 ft 376 kts 50°
2026-04-29 22:11 58.88209 29.11053 31269 ft 377 kts 50°
2026-04-29 22:11 58.90575 29.18124 31280 ft 377 kts 50°
2026-04-29 22:12 58.93416 29.26643 31266 ft 377 kts 50°
2026-04-29 22:12 58.96729 29.36615 31265 ft 376 kts 50°
2026-04-29 22:13 58.99080 29.43718 31264 ft 377 kts 50°
2026-04-29 22:13 59.01908 29.52285 31260 ft 377 kts 50°
2026-04-29 22:14 59.04730 29.60877 31260 ft 378 kts 50°
2026-04-29 22:14 59.07551 29.69504 31262 ft 378 kts 51°
2026-04-29 22:15 59.10370 29.78148 31265 ft 379 kts 50°
2026-04-29 22:15 59.13131 29.86896 31260 ft 382 kts 54°
2026-04-29 22:16 59.15228 29.96531 31259 ft 389 kts 62°
2026-04-29 22:16 59.17067 30.06454 31252 ft 389 kts 62°
2026-04-29 22:17 59.18907 30.16366 31254 ft 389 kts 62°
2026-04-29 22:17 59.20750 30.26293 31274 ft 390 kts 62°
2026-04-29 22:18 59.22591 30.36239 31260 ft 389 kts 62°
2026-04-29 22:18 59.24422 30.46186 31259 ft 389 kts 62°
2026-04-29 22:19 59.26244 30.56138 31253 ft 388 kts 62°
2026-04-29 22:19 59.28056 30.66082 31247 ft 388 kts 62°
2026-04-29 22:20 59.29861 30.76030 31239 ft 388 kts 62°
2026-04-29 22:20 59.31655 30.85977 31238 ft 388 kts 62°
2026-04-29 22:21 59.33440 30.95940 31239 ft 388 kts 62°
2026-04-29 22:21 59.35218 31.05923 31254 ft 388 kts 62°
2026-04-29 22:22 59.36990 31.15921 31240 ft 389 kts 62°
2026-04-29 22:22 59.38765 31.25971 31260 ft 392 kts 63°
2026-04-29 22:23 59.40546 31.36124 31247 ft 394 kts 63°
2026-04-29 22:23 59.42312 31.46255 31240 ft 396 kts 63°
2026-04-29 22:24 59.44088 31.56496 31235 ft 396 kts 63°
2026-04-29 22:24 59.45860 31.66765 31233 ft 396 kts 63°
2026-04-29 22:25 59.47621 31.77018 31229 ft 396 kts 63°
2026-04-29 22:25 59.49366 31.87277 31231 ft 395 kts 64°
2026-04-29 22:26 59.51039 31.97593 31231 ft 396 kts 64°
2026-04-29 22:26 59.52702 32.07909 31228 ft 396 kts 64°
2026-04-29 22:27 59.54334 32.18286 31229 ft 397 kts 65°
2026-04-29 22:27 59.55917 32.28766 31243 ft 401 kts 66°
2026-04-29 22:28 59.57506 32.39340 31228 ft 404 kts 66°
2026-04-29 22:28 59.59105 32.50002 31234 ft 406 kts 66°
2026-04-29 22:29 59.60707 32.60737 31226 ft 408 kts 67°
2026-04-29 22:29 59.62303 32.71489 31238 ft 408 kts 67°
2026-04-29 22:30 59.63862 32.82277 31229 ft 409 kts 68°
2026-04-29 22:30 59.65319 32.93136 31227 ft 408 kts 69°
2026-04-29 22:31 59.66754 33.03982 31224 ft 407 kts 69°
2026-04-29 22:31 59.68179 33.14749 31222 ft 406 kts 69°
2026-04-29 22:32 59.69610 33.25587 31228 ft 408 kts 69°
2026-04-29 22:32 59.71041 33.36481 31222 ft 410 kts 69°
2026-04-29 22:33 59.72470 33.47441 31224 ft 412 kts 70°
2026-04-29 22:33 59.73894 33.58453 31229 ft 414 kts 70°
2026-04-29 22:34 59.75317 33.69539 31215 ft 415 kts 70°
2026-04-29 22:34 59.76732 33.80647 31217 ft 415 kts 70°
2026-04-29 22:35 59.78136 33.91746 31216 ft 414 kts 70°
2026-04-29 22:35 59.79528 34.02838 31216 ft 413 kts 70°
2026-04-29 22:36 59.80907 34.13910 31212 ft 412 kts 70°
2026-04-29 22:36 59.82274 34.24964 31212 ft 412 kts 71°
2026-04-29 22:37 59.83631 34.36014 31223 ft 412 kts 71°
2026-04-29 22:37 59.84980 34.47092 31202 ft 412 kts 71°
2026-04-29 22:38 59.86319 34.58172 31210 ft 412 kts 71°
2026-04-29 22:38 59.87653 34.69291 31209 ft 413 kts 71°
2026-04-29 22:39 59.88970 34.80358 31212 ft 414 kts 71°
2026-04-29 22:39 59.90297 34.91601 31197 ft 414 kts 72°
2026-04-29 22:40 59.91598 35.02716 31190 ft 415 kts 72°
2026-04-29 22:40 59.92909 35.13991 31219 ft 415 kts 72°
2026-04-29 22:41 59.94198 35.25162 31210 ft 417 kts 73°
2026-04-29 22:41 59.95499 35.36475 31202 ft 419 kts 72°
2026-04-29 22:42 59.96830 35.47835 31203 ft 421 kts 72°
2026-04-29 22:42 59.98160 35.59235 31201 ft 422 kts 72°
2026-04-29 22:43 59.99480 35.70671 31201 ft 422 kts 73°
2026-04-29 22:43 60.00787 35.82103 31196 ft 422 kts 73°
2026-04-29 22:44 60.02081 35.93520 31197 ft 420 kts 73°
2026-04-29 22:44 60.03360 36.04902 31181 ft 418 kts 73°
2026-04-29 22:45 60.04623 36.16237 31211 ft 417 kts 73°
2026-04-29 22:45 60.05876 36.27562 31196 ft 417 kts 73°
2026-04-29 22:46 60.07118 36.38897 31183 ft 417 kts 74°
2026-04-29 22:46 60.08354 36.50265 31184 ft 418 kts 74°
2026-04-29 22:47 60.09585 36.61682 31183 ft 420 kts 74°
2026-04-29 22:47 60.10809 36.73133 31182 ft 421 kts 74°
2026-04-29 22:48 60.12020 36.84623 31184 ft 422 kts 75°
2026-04-29 22:48 60.13221 36.96136 31176 ft 422 kts 75°
2026-04-29 22:49 60.14414 37.07661 31170 ft 422 kts 75°
2026-04-29 22:49 60.15597 37.19191 31189 ft 422 kts 75°
2026-04-29 22:50 60.16771 37.30735 31176 ft 422 kts 75°
2026-04-29 22:50 60.17937 37.42306 31167 ft 423 kts 75°
2026-04-29 22:51 60.19095 37.53903 31164 ft 424 kts 76°
2026-04-29 22:51 60.20814 37.71334 31165 ft 424 kts 76°
2026-04-29 22:52 60.21942 37.82905 31160 ft 424 kts 76°
2026-04-29 22:52 60.23067 37.94559 31160 ft 424 kts 76°
2026-04-29 22:53 60.24182 38.06212 31154 ft 424 kts 76°
2026-04-29 22:53 60.25287 38.17865 31155 ft 424 kts 76°
2026-04-29 22:54 60.26388 38.29540 31158 ft 424 kts 77°
2026-04-29 22:54 60.27491 38.41233 31154 ft 425 kts 77°
2026-04-29 22:55 60.28587 38.52954 31159 ft 426 kts 77°
2026-04-29 22:55 60.29674 38.64699 31152 ft 426 kts 77°
2026-04-29 22:56 60.30751 38.76465 31145 ft 426 kts 77°
2026-04-29 22:56 60.31816 38.88226 31144 ft 426 kts 77°
2026-04-29 22:57 60.32870 38.99987 31144 ft 426 kts 77°
2026-04-29 22:57 60.33913 39.11736 31141 ft 425 kts 77°
2026-04-29 22:58 60.34944 39.23485 31154 ft 425 kts 78°
2026-04-29 22:58 60.35967 39.35269 31145 ft 426 kts 78°
2026-04-29 22:59 60.36812 39.45090 31141 ft 428 kts 78°
2026-04-29 22:59 60.37822 39.56954 31144 ft 429 kts 78°
2026-04-29 23:00 60.38822 39.68843 31142 ft 429 kts 78°
2026-04-29 23:00 60.39813 39.80752 31127 ft 429 kts 78°
2026-04-29 23:01 60.40793 39.92664 31130 ft 429 kts 78°
2026-04-29 23:01 60.41762 40.04574 31130 ft 429 kts 78°
2026-04-29 23:02 60.42714 40.16407 31116 ft 428 kts 79°
2026-04-29 23:02 60.43665 40.28382 31136 ft 428 kts 79°
2026-04-29 23:03 60.44595 40.40220 31121 ft 428 kts 79°
2026-04-29 23:03 60.45520 40.52144 31122 ft 429 kts 79°
2026-04-29 23:04 60.46436 40.64088 31130 ft 429 kts 79°
2026-04-29 23:04 60.47344 40.76063 31115 ft 430 kts 79°
2026-04-29 23:05 60.48243 40.88062 31119 ft 430 kts 79°
2026-04-29 23:05 60.49129 41.00062 31116 ft 431 kts 80°
2026-04-29 23:06 60.49988 41.12094 31110 ft 431 kts 80°
2026-04-29 23:06 60.50832 41.24121 31113 ft 431 kts 80°
2026-04-29 23:07 60.51667 41.36158 31103 ft 431 kts 81°
2026-04-29 23:07 60.52494 41.48206 31101 ft 431 kts 81°
2026-04-29 23:08 60.53312 41.60286 31106 ft 432 kts 81°
2026-04-29 23:08 60.54120 41.72387 31102 ft 433 kts 81°
2026-04-29 23:09 60.54919 41.84530 31095 ft 434 kts 81°
2026-04-29 23:09 60.55707 41.96673 31102 ft 434 kts 81°
2026-04-29 23:10 60.56487 42.08833 31098 ft 434 kts 81°
2026-04-29 23:10 60.57250 42.20998 31089 ft 434 kts 81°
2026-04-29 23:11 60.57990 42.33077 31091 ft 433 kts 81°
2026-04-29 23:11 60.58726 42.45227 31079 ft 433 kts 82°
2026-04-29 23:12 60.59452 42.57395 31087 ft 433 kts 82°
2026-04-29 23:12 60.60168 42.69575 31086 ft 434 kts 82°
2026-04-29 23:13 60.60875 42.81801 31087 ft 435 kts 82°
2026-04-29 23:13 60.61573 42.94056 31083 ft 436 kts 82°
2026-04-29 23:14 60.62260 43.06334 31080 ft 437 kts 82°
2026-04-29 23:14 60.62937 43.18628 31075 ft 437 kts 83°
2026-04-29 23:15 60.63602 43.30921 31074 ft 436 kts 82°
2026-04-29 23:15 60.64255 43.43214 31072 ft 436 kts 83°
2026-04-29 23:16 60.64897 43.55499 31067 ft 436 kts 83°
2026-04-29 23:16 60.65530 43.67812 31071 ft 437 kts 83°
2026-04-29 23:17 60.66153 43.80154 31070 ft 438 kts 83°
2026-04-29 23:17 60.66768 43.92531 31065 ft 439 kts 83°
2026-04-29 23:18 60.67377 44.04928 31062 ft 439 kts 83°
2026-04-29 23:18 60.67976 44.17324 31062 ft 439 kts 83°
2026-04-29 23:19 60.68563 44.29724 31064 ft 439 kts 84°
2026-04-29 23:19 60.69135 44.42046 31063 ft 439 kts 84°
2026-04-29 23:20 60.69697 44.54427 31065 ft 438 kts 84°
2026-04-29 23:20 60.70249 44.66812 31052 ft 438 kts 84°
2026-04-29 23:21 60.70789 44.79205 31058 ft 438 kts 84°
2026-04-29 23:21 60.71318 44.91599 31052 ft 438 kts 84°
2026-04-29 23:22 60.71839 45.04013 31053 ft 439 kts 84°
2026-04-29 23:22 60.72350 45.16428 31050 ft 439 kts 84°
2026-04-29 23:23 60.72871 45.28849 31041 ft 439 kts 84°
2026-04-29 23:23 60.73383 45.41282 31045 ft 439 kts 84°
2026-04-29 23:24 60.73877 45.53719 31043 ft 439 kts 85°
2026-04-29 23:24 60.74358 45.66197 31040 ft 440 kts 85°
2026-04-29 23:25 60.74829 45.78676 31042 ft 441 kts 85°
2026-04-29 23:25 60.75292 45.91209 31041 ft 442 kts 85°
2026-04-29 23:26 60.75744 46.03756 31036 ft 443 kts 85°
2026-04-29 23:26 60.76185 46.16321 31038 ft 442 kts 85°
2026-04-29 23:27 60.76616 46.28872 31035 ft 442 kts 86°
2026-04-29 23:27 60.76976 46.41425 31027 ft 442 kts 87°
2026-04-29 23:28 60.77272 46.54010 31025 ft 443 kts 87°
2026-04-29 23:28 60.77572 46.66515 31022 ft 444 kts 87°
2026-04-29 23:29 60.77888 46.79126 31026 ft 444 kts 87°
2026-04-29 23:29 60.78198 46.91765 31028 ft 444 kts 87°
2026-04-29 23:30 60.78495 47.04395 31021 ft 445 kts 88°
2026-04-29 23:30 60.78780 47.17054 31021 ft 445 kts 88°
2026-04-29 23:31 60.79054 47.29701 31023 ft 445 kts 88°
2026-04-29 23:31 60.79313 47.42375 31017 ft 446 kts 88°
2026-04-29 23:32 60.79560 47.55055 31015 ft 446 kts 88°
2026-04-29 23:32 60.79797 47.67750 31013 ft 446 kts 88°
2026-04-29 23:33 60.80023 47.80455 31006 ft 447 kts 89°
2026-04-29 23:33 60.80237 47.93170 31011 ft 447 kts 89°
2026-04-29 23:34 60.80439 48.05905 31008 ft 448 kts 89°
2026-04-29 23:34 60.80630 48.18667 31001 ft 449 kts 89°
2026-04-29 23:35 60.80812 48.31450 31001 ft 449 kts 89°
2026-04-29 23:35 60.80979 48.44235 30992 ft 449 kts 89°
2026-04-29 23:36 60.81137 48.56957 30991 ft 449 kts 89°
2026-04-29 23:36 60.81285 48.69754 30991 ft 449 kts 89°
2026-04-29 23:37 60.81423 48.82552 30969 ft 449 kts 90°
2026-04-29 23:37 60.81548 48.95362 30988 ft 450 kts 90°
2026-04-29 23:38 60.81661 49.08215 30990 ft 452 kts 90°
2026-04-29 23:38 60.81762 49.21116 30980 ft 454 kts 90°
2026-04-29 23:39 60.81852 49.34051 30973 ft 455 kts 90°
2026-04-29 23:39 60.81929 49.47004 30977 ft 455 kts 90°
2026-04-29 23:40 60.81994 49.59966 30965 ft 455 kts 90°
2026-04-29 23:40 60.82046 49.72908 30967 ft 454 kts 90°
2026-04-29 23:41 60.82089 49.85831 30948 ft 453 kts 91°
2026-04-29 23:41 60.82117 49.98745 30955 ft 453 kts 91°
2026-04-29 23:42 60.82139 50.11678 30960 ft 454 kts 91°
2026-04-29 23:42 60.82151 50.24626 30949 ft 455 kts 91°
2026-04-29 23:43 60.82150 50.37605 30950 ft 456 kts 91°
2026-04-29 23:43 60.82137 50.50600 30948 ft 456 kts 91°
2026-04-29 23:44 60.82112 50.63615 30942 ft 457 kts 91°
2026-04-29 23:44 60.82074 50.76537 30953 ft 457 kts 91°
2026-04-29 23:45 60.82023 50.89552 30942 ft 457 kts 92°
2026-04-29 23:45 60.81960 51.02573 30935 ft 457 kts 92°
2026-04-29 23:46 60.81886 51.15590 30944 ft 457 kts 92°
2026-04-29 23:46 60.81799 51.28622 30945 ft 458 kts 92°
2026-04-29 23:47 60.81707 51.41672 30945 ft 458 kts 92°
2026-04-29 23:47 60.81611 51.54745 30949 ft 459 kts 92°
2026-04-29 23:48 60.81503 51.67819 30956 ft 459 kts 92°
2026-04-29 23:48 60.81403 51.78793 30943 ft 460 kts 92°
2026-04-29 23:49 60.81271 51.91792 30944 ft 459 kts 92°
2026-04-29 23:49 60.81101 52.07075 30943 ft 459 kts 93°
2026-04-29 23:50 60.80969 52.17923 30948 ft 458 kts 93°
2026-04-29 23:51 60.80709 52.37507 30948 ft 458 kts 93°
2026-04-29 23:51 60.80520 52.50556 30957 ft 458 kts 93°
2026-04-29 23:52 60.80319 52.63596 30958 ft 458 kts 93°
2026-04-29 23:52 60.80105 52.76658 30953 ft 459 kts 94°
2026-04-29 23:53 60.79878 52.89707 30961 ft 459 kts 94°
2026-04-29 23:53 60.79638 53.02755 30961 ft 459 kts 94°
2026-04-29 23:54 60.79387 53.15785 30953 ft 458 kts 94°
2026-04-29 23:54 60.79122 53.28823 30968 ft 458 kts 94°
2026-04-29 23:55 60.78846 53.41843 30973 ft 458 kts 94°
2026-04-29 23:55 60.78559 53.54875 30963 ft 459 kts 94°
2026-04-29 23:56 60.78255 53.67825 30966 ft 459 kts 95°
2026-04-29 23:56 60.77920 53.80871 30958 ft 459 kts 95°
2026-04-29 23:57 60.77573 53.93914 30959 ft 459 kts 95°
2026-04-29 23:57 60.77215 54.06971 30966 ft 460 kts 95°
2026-04-29 23:58 60.76847 54.20017 30962 ft 459 kts 95°
2026-04-29 23:58 60.76466 54.33063 30968 ft 460 kts 95°
2026-04-29 23:59 60.76072 54.46122 30963 ft 460 kts 95°
2026-04-29 23:59 60.75664 54.59189 30973 ft 461 kts 95°
2026-04-30 00:00 60.75244 54.72276 30965 ft 461 kts 95°
2026-04-30 00:00 60.74810 54.85360 30965 ft 461 kts 96°
2026-04-30 00:01 60.74364 54.98448 30978 ft 462 kts 96°
2026-04-30 00:01 60.73905 55.11522 30968 ft 461 kts 96°
2026-04-30 00:02 60.73436 55.24518 30973 ft 462 kts 96°
2026-04-30 00:02 60.72952 55.37596 30964 ft 461 kts 96°
2026-04-30 00:03 60.72456 55.50658 30979 ft 461 kts 96°
2026-04-30 00:03 60.71949 55.63726 30974 ft 461 kts 96°
2026-04-30 00:04 60.71421 55.76777 30983 ft 461 kts 97°
2026-04-30 00:04 60.70861 55.89816 30975 ft 461 kts 97°
2026-04-30 00:05 60.70288 56.02854 30975 ft 461 kts 97°
2026-04-30 00:05 60.69705 56.15899 30978 ft 462 kts 97°
2026-04-30 00:06 60.69112 56.28948 30971 ft 462 kts 97°
2026-04-30 00:06 60.68505 56.41985 30984 ft 462 kts 97°
2026-04-30 00:07 60.67885 56.55053 30985 ft 463 kts 97°
2026-04-30 00:07 60.67251 56.68121 30992 ft 463 kts 98°
2026-04-30 00:08 60.66605 56.81193 30996 ft 464 kts 98°
2026-04-30 00:08 60.65945 56.94268 30999 ft 464 kts 98°
2026-04-30 00:09 60.65272 57.07348 30988 ft 464 kts 98°
2026-04-30 00:09 60.64592 57.20323 31002 ft 463 kts 98°
2026-04-30 00:10 60.63896 57.33377 30974 ft 463 kts 99°
2026-04-30 00:10 60.63187 57.46429 30997 ft 463 kts 99°
2026-04-30 00:11 60.62476 57.59470 31007 ft 464 kts 99°
2026-04-30 00:11 60.61762 57.72543 31010 ft 465 kts 99°
2026-04-30 00:12 60.61036 57.85619 31021 ft 466 kts 99°
2026-04-30 00:12 60.60293 57.98734 31015 ft 467 kts 99°
2026-04-30 00:13 60.59536 58.11864 31016 ft 467 kts 99°
2026-04-30 00:13 60.58765 58.25002 31020 ft 468 kts 99°
2026-04-30 00:14 60.57981 58.38142 30988 ft 468 kts 100°
2026-04-30 00:14 60.57185 58.51262 31023 ft 468 kts 100°
2026-04-30 00:15 60.56372 58.64413 31028 ft 469 kts 101°
2026-04-30 00:15 60.55545 58.77590 31032 ft 471 kts 101°
2026-04-30 00:16 60.54708 58.90724 31034 ft 472 kts 101°
2026-04-30 00:16 60.53845 59.04050 31027 ft 473 kts 101°
2026-04-30 00:17 60.52980 59.17191 31031 ft 473 kts 101°
2026-04-30 00:17 60.52097 59.30419 31033 ft 473 kts 101°
2026-04-30 00:18 60.51200 59.43636 30996 ft 472 kts 102°
2026-04-30 00:18 60.50294 59.56805 31034 ft 472 kts 102°
2026-04-30 00:19 60.49369 59.70012 31044 ft 474 kts 102°
2026-04-30 00:19 60.48429 59.83263 31043 ft 475 kts 102°
2026-04-30 00:20 60.47474 59.96533 31040 ft 476 kts 102°
2026-04-30 00:20 60.46505 60.09816 31049 ft 477 kts 102°
2026-04-30 00:21 60.45522 60.23103 31044 ft 477 kts 103°
2026-04-30 00:21 60.44525 60.36382 31041 ft 476 kts 103°
2026-04-30 00:22 60.43518 60.49623 31009 ft 475 kts 103°
2026-04-30 00:22 60.42499 60.62822 31050 ft 475 kts 103°
2026-04-30 00:23 60.41465 60.76043 31055 ft 477 kts 104°
2026-04-30 00:23 60.40413 60.89311 31060 ft 478 kts 104°
2026-04-30 00:24 60.39345 61.02610 31055 ft 480 kts 104°
2026-04-30 00:24 60.38263 61.15922 31056 ft 480 kts 104°
2026-04-30 00:25 60.37174 61.29147 31060 ft 480 kts 104°
2026-04-30 00:25 60.36067 61.42428 31054 ft 479 kts 104°
2026-04-30 00:26 60.34941 61.55764 31041 ft 478 kts 105°
2026-04-30 00:26 60.33818 61.68892 31065 ft 478 kts 105°
2026-04-30 00:27 60.32671 61.82137 31071 ft 480 kts 105°
2026-04-30 00:27 60.31500 61.95516 31070 ft 481 kts 105°
2026-04-30 00:28 60.30324 62.08813 31067 ft 482 kts 105°
2026-04-30 00:28 60.29149 62.22041 31070 ft 482 kts 105°
2026-04-30 00:29 60.27969 62.35340 31075 ft 482 kts 105°
2026-04-30 00:29 60.26776 62.48640 31068 ft 482 kts 105°
2026-04-30 00:30 60.25571 62.61899 31067 ft 481 kts 107°
2026-04-30 00:30 60.24350 62.75163 31079 ft 482 kts 107°
2026-04-30 00:31 60.23113 62.88450 31095 ft 484 kts 107°
2026-04-30 00:31 60.21859 63.01800 31076 ft 486 kts 107°
2026-04-30 00:32 60.20590 63.15150 31085 ft 486 kts 107°
2026-04-30 00:32 60.19298 63.28497 31085 ft 486 kts 107°
2026-04-30 00:33 60.17995 63.41816 31086 ft 485 kts 107°
2026-04-30 00:33 60.16682 63.55112 31026 ft 485 kts 108°
2026-04-30 00:34 60.15360 63.68373 31081 ft 485 kts 108°
2026-04-30 00:34 60.14020 63.81674 31097 ft 487 kts 108°
2026-04-30 00:35 60.12897 63.95162 31101 ft 496 kts 100°
2026-04-30 00:35 60.12714 64.09093 31093 ft 501 kts 96°
2026-04-30 00:36 60.12605 64.22961 31090 ft 501 kts 96°
2026-04-30 00:36 60.12435 64.36919 31092 ft 500 kts 97°
2026-04-30 00:37 60.12230 64.50838 31096 ft 499 kts 97°
2026-04-30 00:37 60.12010 64.64719 31083 ft 497 kts 97°
2026-04-30 00:38 60.11781 64.78564 31095 ft 496 kts 97°
2026-04-30 00:38 60.11431 64.92338 31090 ft 493 kts 101°
2026-04-30 00:39 60.10780 65.06035 31108 ft 495 kts 102°
2026-04-30 00:39 60.10092 65.19805 31110 ft 498 kts 101°
2026-04-30 00:40 60.09543 65.31324 31114 ft 501 kts 101°
2026-04-30 00:40 60.08892 65.45230 31097 ft 501 kts 101°
2026-04-30 00:41 60.08124 65.61349 31103 ft 499 kts 101°
2026-04-30 00:41 60.07447 65.75155 31102 ft 497 kts 102°
2026-04-30 00:42 60.06869 65.86687 31108 ft 496 kts 102°
2026-04-30 00:42 60.06167 66.00397 31106 ft 495 kts 102°
2026-04-30 00:43 60.05453 66.14071 31101 ft 493 kts 102°
2026-04-30 00:43 60.04726 66.27719 31112 ft 493 kts 102°
2026-04-30 00:44 60.03987 66.41338 31112 ft 492 kts 102°
2026-04-30 00:44 60.03236 66.54951 31116 ft 492 kts 102°
2026-04-30 00:45 60.02469 66.68564 31119 ft 493 kts 102°
2026-04-30 00:45 60.01681 66.82169 31118 ft 493 kts 103°
2026-04-30 00:46 60.00880 66.95785 31103 ft 493 kts 103°
2026-04-30 00:46 60.00068 67.09378 31117 ft 493 kts 103°
2026-04-30 00:47 59.99243 67.22965 31105 ft 492 kts 103°
2026-04-30 00:47 59.98404 67.36541 31065 ft 492 kts 103°
2026-04-30 00:48 59.97554 67.50068 31100 ft 491 kts 103°
2026-04-30 00:48 59.96689 67.63596 31080 ft 491 kts 103°
2026-04-30 00:49 59.95811 67.77109 31101 ft 491 kts 104°
2026-04-30 00:49 59.94919 67.90625 31108 ft 491 kts 104°
2026-04-30 00:50 59.94019 68.04046 31105 ft 492 kts 104°
2026-04-30 00:50 59.93099 68.17558 31101 ft 492 kts 104°
2026-04-30 00:51 59.92169 68.31055 31101 ft 491 kts 104°
2026-04-30 00:51 59.91217 68.44527 31092 ft 490 kts 104°
2026-04-30 00:52 59.90245 68.57974 31098 ft 490 kts 104°
2026-04-30 00:52 59.89263 68.71377 31047 ft 489 kts 105°
2026-04-30 00:53 59.88272 68.84763 31100 ft 489 kts 105°
2026-04-30 00:53 59.87265 68.98153 31120 ft 490 kts 105°
2026-04-30 00:54 59.86242 69.11582 31109 ft 491 kts 105°
2026-04-30 00:54 59.85204 69.25029 31108 ft 492 kts 105°
2026-04-30 00:55 59.84150 69.38501 31106 ft 493 kts 105°
2026-04-30 00:55 59.82538 69.58688 31113 ft 491 kts 107°
2026-04-30 00:56 59.80839 69.71674 31121 ft 483 kts 114°
2026-04-30 00:56 59.78884 69.84416 31111 ft 482 kts 115°
2026-04-30 00:57 59.76936 69.97137 31089 ft 481 kts 115°
2026-04-30 00:57 59.75005 70.09844 31115 ft 481 kts 115°
2026-04-30 00:58 59.73070 70.22548 31120 ft 482 kts 115°
2026-04-30 00:58 59.71117 70.35282 31119 ft 483 kts 115°
2026-04-30 00:59 59.69162 70.47931 31119 ft 484 kts 115°
2026-04-30 00:59 59.67180 70.60662 31117 ft 484 kts 115°
2026-04-30 01:00 59.65184 70.73385 31099 ft 484 kts 115°
2026-04-30 01:00 59.63182 70.86061 31055 ft 482 kts 115°
2026-04-30 01:01 59.61179 70.98653 31114 ft 479 kts 115°
2026-04-30 01:01 59.59168 71.11189 31120 ft 478 kts 115°
2026-04-30 01:02 59.57149 71.23679 31117 ft 478 kts 115°
2026-04-30 01:02 59.55118 71.36163 31116 ft 478 kts 116°
2026-04-30 01:03 59.53073 71.48641 31125 ft 479 kts 116°
2026-04-30 01:03 59.51016 71.61112 31109 ft 478 kts 116°
2026-04-30 01:04 59.48951 71.73552 31110 ft 478 kts 116°
2026-04-30 01:04 59.46875 71.85963 31085 ft 477 kts 116°
2026-04-30 01:05 59.44793 71.98329 31116 ft 476 kts 116°
2026-04-30 01:05 59.42700 72.10668 31120 ft 476 kts 116°
2026-04-30 01:06 59.40592 72.23010 31116 ft 477 kts 116°
2026-04-30 01:06 59.38472 72.35345 31107 ft 476 kts 116°
2026-04-30 01:07 59.36345 72.47644 31107 ft 476 kts 116°
2026-04-30 01:07 59.34208 72.59912 31112 ft 475 kts 116°
2026-04-30 01:08 59.32062 72.72150 31108 ft 475 kts 117°
2026-04-30 01:08 59.29910 72.84354 31097 ft 473 kts 116°
2026-04-30 01:09 59.27750 72.96507 31104 ft 473 kts 116°
2026-04-30 01:09 59.25579 73.08638 31106 ft 473 kts 116°
2026-04-30 01:10 59.23401 73.20744 31107 ft 472 kts 116°
2026-04-30 01:10 59.21212 73.32829 31113 ft 472 kts 116°
2026-04-30 01:11 59.19013 73.44893 31110 ft 471 kts 117°
2026-04-30 01:11 59.16807 73.56921 31095 ft 471 kts 117°
2026-04-30 01:12 59.14591 73.68930 31056 ft 471 kts 116°
2026-04-30 01:12 59.12370 73.80889 31105 ft 469 kts 116°
2026-04-30 01:13 59.10142 73.92822 31106 ft 469 kts 116°
2026-04-30 01:13 59.07900 74.04753 31111 ft 469 kts 116°
2026-04-30 01:14 59.05658 74.16666 31116 ft 470 kts 116°
2026-04-30 01:14 59.03407 74.28596 31112 ft 470 kts 117°
2026-04-30 01:15 59.01163 74.40424 31112 ft 470 kts 117°
2026-04-30 01:15 58.98890 74.52322 31116 ft 470 kts 117°
2026-04-30 01:16 58.96609 74.64191 31065 ft 469 kts 117°
2026-04-30 01:16 58.94325 74.76008 31107 ft 468 kts 117°
2026-04-30 01:17 58.92028 74.87814 31115 ft 468 kts 117°
2026-04-30 01:17 58.89723 74.99593 31115 ft 468 kts 117°
2026-04-30 01:18 58.87407 75.11356 31124 ft 468 kts 117°
2026-04-30 01:18 58.85078 75.23112 31127 ft 468 kts 117°
2026-04-30 01:19 58.82740 75.34849 31110 ft 469 kts 117°
2026-04-30 01:19 58.80390 75.46578 31117 ft 468 kts 117°
2026-04-30 01:20 58.78030 75.58283 31108 ft 468 kts 117°
2026-04-30 01:20 58.75659 75.69978 31130 ft 469 kts 118°
2026-04-30 01:21 58.73275 75.81669 31130 ft 470 kts 118°
2026-04-30 01:21 58.70891 75.93290 31134 ft 470 kts 118°
2026-04-30 01:22 58.68480 76.04983 31128 ft 471 kts 118°
2026-04-30 01:22 58.66055 76.16674 31134 ft 471 kts 118°
2026-04-30 01:23 58.63618 76.28353 31142 ft 471 kts 118°
2026-04-30 01:23 58.61173 76.40018 31142 ft 471 kts 118°
2026-04-30 01:24 58.58703 76.51643 31144 ft 470 kts 120°
2026-04-30 01:24 58.55922 76.62917 31149 ft 467 kts 122°
2026-04-30 01:25 58.53072 76.74085 31159 ft 467 kts 123°
2026-04-30 01:25 58.50224 76.85253 31160 ft 467 kts 122°
2026-04-30 01:26 58.47381 76.96418 31156 ft 467 kts 122°
2026-04-30 01:26 58.45016 77.05680 31159 ft 467 kts 123°
2026-04-30 01:27 58.41681 77.18684 31156 ft 467 kts 123°
2026-04-30 01:27 58.39301 77.27912 31141 ft 466 kts 122°
2026-04-30 01:28 58.35951 77.40840 31161 ft 465 kts 123°
2026-04-30 01:28 58.33562 77.50011 31161 ft 465 kts 123°
2026-04-30 01:29 58.30679 77.61030 31171 ft 465 kts 123°
2026-04-30 01:29 58.27786 77.72032 31169 ft 466 kts 123°
2026-04-30 01:30 58.24882 77.83024 31175 ft 466 kts 123°
2026-04-30 01:30 58.21966 77.94005 31178 ft 466 kts 123°
2026-04-30 01:31 58.19041 78.04970 31131 ft 466 kts 122°
2026-04-30 01:31 58.16114 78.15891 31174 ft 465 kts 123°
2026-04-30 01:32 58.13178 78.26788 31173 ft 464 kts 122°
2026-04-30 01:32 58.10239 78.37643 31184 ft 463 kts 122°
2026-04-30 01:33 58.07294 78.48472 31190 ft 463 kts 123°
2026-04-30 01:33 58.04340 78.59282 31198 ft 463 kts 123°
2026-04-30 01:34 58.01373 78.70087 31196 ft 464 kts 123°
2026-04-30 01:34 57.98399 78.80866 31167 ft 464 kts 122°
2026-04-30 01:35 57.95418 78.91624 31187 ft 463 kts 123°
2026-04-30 01:35 57.92431 79.02347 31198 ft 462 kts 122°
2026-04-30 01:36 57.89441 79.13036 31210 ft 462 kts 122°
2026-04-30 01:36 57.86441 79.23706 31209 ft 461 kts 122°
2026-04-30 01:37 57.83435 79.34354 31203 ft 461 kts 123°
2026-04-30 01:37 57.80423 79.44971 31210 ft 461 kts 123°
2026-04-30 01:38 57.77426 79.55493 31215 ft 461 kts 123°
2026-04-30 01:38 57.74404 79.66064 31209 ft 460 kts 122°
2026-04-30 01:39 57.71368 79.76572 31215 ft 458 kts 123°
2026-04-30 01:39 57.68300 79.86986 31220 ft 457 kts 123°
2026-04-30 01:40 57.65224 79.97373 31220 ft 456 kts 123°
2026-04-30 01:40 57.62148 80.07737 31225 ft 456 kts 123°
2026-04-30 01:41 57.59070 80.18073 31225 ft 456 kts 123°
2026-04-30 01:41 57.55981 80.28400 31227 ft 456 kts 123°
2026-04-30 01:42 57.52886 80.38703 31224 ft 456 kts 122°
2026-04-30 01:42 57.49783 80.48992 31236 ft 456 kts 123°
2026-04-30 01:43 57.46674 80.59251 31232 ft 456 kts 123°
2026-04-30 01:43 57.43556 80.69496 31240 ft 456 kts 123°
2026-04-30 01:44 57.40427 80.79731 31241 ft 456 kts 123°
2026-04-30 01:44 57.37292 80.89943 31255 ft 456 kts 123°
2026-04-30 01:45 57.34170 81.00066 31255 ft 456 kts 123°
2026-04-30 01:45 57.31022 81.10240 31243 ft 455 kts 122°
2026-04-30 01:46 57.27872 81.20363 31258 ft 454 kts 123°
2026-04-30 01:46 57.24716 81.30466 31257 ft 453 kts 123°
2026-04-30 01:47 57.21558 81.40534 31256 ft 453 kts 123°
2026-04-30 01:47 57.18393 81.50579 31265 ft 453 kts 123°
2026-04-30 01:48 57.15224 81.60598 31265 ft 453 kts 123°
2026-04-30 01:48 57.12045 81.70607 31260 ft 453 kts 123°
2026-04-30 01:49 57.08860 81.80591 31261 ft 452 kts 122°
2026-04-30 01:49 57.05666 81.90565 31269 ft 452 kts 122°
2026-04-30 01:50 57.02468 82.00515 31275 ft 452 kts 122°
2026-04-30 01:50 56.99371 82.10575 31275 ft 453 kts 119°
2026-04-30 01:51 56.96500 82.20852 31275 ft 453 kts 118°
2026-04-30 01:51 56.93633 82.31148 31281 ft 453 kts 119°
2026-04-30 01:52 56.90749 82.41409 31282 ft 453 kts 119°
2026-04-30 01:52 56.87849 82.51650 31261 ft 454 kts 119°
2026-04-30 01:53 56.84931 82.61897 31292 ft 455 kts 119°
2026-04-30 01:53 56.81992 82.72173 31294 ft 458 kts 120°
2026-04-30 01:54 56.79049 82.82417 31301 ft 460 kts 120°
2026-04-30 01:54 56.76069 82.92746 31294 ft 461 kts 120°
2026-04-30 01:55 56.73078 83.03070 31293 ft 461 kts 120°
2026-04-30 01:55 56.70078 83.13377 31298 ft 460 kts 120°
2026-04-30 01:56 56.67073 83.23656 31296 ft 460 kts 120°
2026-04-30 01:56 56.64062 83.33909 31293 ft 460 kts 120°
2026-04-30 01:57 56.61041 83.44151 31298 ft 460 kts 120°
2026-04-30 01:57 56.58009 83.54386 31302 ft 461 kts 120°
2026-04-30 01:58 56.54959 83.64635 31308 ft 462 kts 120°
2026-04-30 01:58 56.51895 83.74886 31302 ft 463 kts 120°
2026-04-30 01:59 56.47277 83.90257 31306 ft 464 kts 121°
2026-04-30 02:00 56.44189 84.00479 31302 ft 463 kts 121°
2026-04-30 02:00 56.41091 84.10686 31307 ft 463 kts 121°
2026-04-30 02:01 56.37988 84.20869 31313 ft 463 kts 121°
2026-04-30 02:01 56.34878 84.31030 31306 ft 462 kts 121°
2026-04-30 02:02 56.31766 84.41155 31311 ft 462 kts 121°
2026-04-30 02:02 56.28643 84.51271 31320 ft 462 kts 121°
2026-04-30 02:03 56.25513 84.61367 31318 ft 462 kts 121°
2026-04-30 02:03 56.22371 84.71458 31321 ft 462 kts 121°
2026-04-30 02:04 56.19223 84.81527 31301 ft 463 kts 121°
2026-04-30 02:04 56.16084 84.91523 31313 ft 464 kts 121°
2026-04-30 02:05 56.12903 85.01612 31328 ft 465 kts 121°
2026-04-30 02:05 56.09703 85.11720 31326 ft 467 kts 121°
2026-04-30 02:06 56.06485 85.21842 31325 ft 468 kts 121°
2026-04-30 02:06 56.03254 85.31963 31323 ft 468 kts 121°
2026-04-30 02:07 56.00016 85.42063 31324 ft 468 kts 121°
2026-04-30 02:07 55.96776 85.52133 31324 ft 467 kts 121°
2026-04-30 02:08 55.93507 85.62135 31319 ft 466 kts 122°
2026-04-30 02:08 55.90168 85.72010 31324 ft 465 kts 123°
2026-04-30 02:09 55.86825 85.81866 31339 ft 465 kts 123°
2026-04-30 02:09 55.83483 85.91728 31343 ft 465 kts 123°
2026-04-30 02:10 55.80136 86.01578 31330 ft 465 kts 123°
2026-04-30 02:10 55.76772 86.11408 31332 ft 466 kts 123°
2026-04-30 02:11 55.73407 86.21157 31330 ft 467 kts 123°
2026-04-30 02:11 55.70009 86.30969 31348 ft 467 kts 123°
2026-04-30 02:12 55.66606 86.40768 31343 ft 467 kts 123°
2026-04-30 02:12 55.63193 86.50559 31344 ft 467 kts 123°
2026-04-30 02:13 55.59773 86.60329 31342 ft 467 kts 123°
2026-04-30 02:13 55.56346 86.70084 31332 ft 467 kts 123°
2026-04-30 02:14 55.52910 86.79823 31351 ft 467 kts 123°
2026-04-30 02:14 55.49470 86.89533 31349 ft 467 kts 123°
2026-04-30 02:15 55.46023 86.99224 31338 ft 466 kts 123°
2026-04-30 02:15 55.42574 87.08886 31345 ft 466 kts 123°
2026-04-30 02:16 55.39120 87.18520 31351 ft 465 kts 123°
2026-04-30 02:16 55.35661 87.28134 31346 ft 465 kts 123°
2026-04-30 02:17 55.32781 87.36108 31348 ft 465 kts 123°
2026-04-30 02:17 55.29310 87.45686 31351 ft 465 kts 123°
2026-04-30 02:18 55.25832 87.55247 31347 ft 465 kts 123°
2026-04-30 02:18 55.22343 87.64801 31354 ft 465 kts 123°
2026-04-30 02:19 55.18855 87.74322 31354 ft 464 kts 123°
2026-04-30 02:19 55.15358 87.83805 31377 ft 464 kts 123°
2026-04-30 02:20 55.11838 87.93259 31371 ft 464 kts 123°
2026-04-30 02:20 55.08312 88.02693 31370 ft 464 kts 123°
2026-04-30 02:21 55.04789 88.12099 31357 ft 459 kts 123°
2026-04-30 02:21 55.01326 88.21309 31398 ft 455 kts 123°
2026-04-30 02:21 54.99581 88.25945 31811 ft 458 kts 123°
2026-04-30 02:22 54.97839 88.30553 32485 ft 454 kts 123°
2026-04-30 02:22 54.96107 88.35129 33152 ft 451 kts 123°
2026-04-30 02:22 54.94376 88.39695 33425 ft 452 kts 123°
2026-04-30 02:23 54.90933 88.48755 33401 ft 447 kts 123°
2026-04-30 02:23 54.87484 88.57796 33400 ft 450 kts 123°
2026-04-30 02:24 54.84010 88.66881 33398 ft 453 kts 123°
2026-04-30 02:24 54.80512 88.75986 33395 ft 454 kts 123°
2026-04-30 02:25 54.77015 88.85087 33390 ft 454 kts 123°
2026-04-30 02:25 54.73522 88.94162 33391 ft 452 kts 123°
2026-04-30 02:26 54.70067 89.03109 33393 ft 449 kts 123°
2026-04-30 02:26 54.66577 89.12111 33402 ft 446 kts 123°
2026-04-30 02:27 54.63143 89.20936 33391 ft 445 kts 123°
2026-04-30 02:27 54.59694 89.29769 33395 ft 444 kts 123°
2026-04-30 02:28 54.56234 89.38600 33399 ft 444 kts 123°
2026-04-30 02:28 54.52762 89.47428 33403 ft 446 kts 123°
2026-04-30 02:29 54.49272 89.56273 33392 ft 448 kts 123°
2026-04-30 02:29 54.45760 89.65142 33399 ft 449 kts 123°
2026-04-30 02:30 54.42237 89.74002 33405 ft 449 kts 123°
2026-04-30 02:30 54.38705 89.82858 33397 ft 449 kts 123°
2026-04-30 02:31 54.35174 89.91677 33398 ft 448 kts 123°
2026-04-30 02:31 54.31639 90.00476 33421 ft 448 kts 123°
2026-04-30 02:32 54.28105 90.09242 33401 ft 447 kts 123°
2026-04-30 02:32 54.24570 90.17980 33372 ft 446 kts 123°
2026-04-30 02:33 54.21046 90.26663 33395 ft 444 kts 123°
2026-04-30 02:33 54.17523 90.35307 33394 ft 442 kts 123°
2026-04-30 02:34 54.14005 90.43914 33404 ft 442 kts 123°
2026-04-30 02:34 54.10486 90.52493 33403 ft 441 kts 123°
2026-04-30 02:35 54.06960 90.61059 33410 ft 442 kts 123°
2026-04-30 02:35 54.03426 90.69618 33406 ft 442 kts 123°
2026-04-30 02:36 53.99908 90.78107 33408 ft 442 kts 123°
2026-04-30 02:36 53.96360 90.86640 33402 ft 442 kts 124°
2026-04-30 02:37 53.92806 90.95159 33400 ft 442 kts 124°
2026-04-30 02:37 53.89241 91.03673 33392 ft 443 kts 124°
2026-04-30 02:38 53.85671 91.12173 33398 ft 443 kts 124°
2026-04-30 02:38 53.82092 91.20667 33398 ft 443 kts 124°
2026-04-30 02:39 53.78510 91.29146 33397 ft 443 kts 124°
2026-04-30 02:39 53.74914 91.37606 33415 ft 443 kts 125°
2026-04-30 02:40 53.70885 91.45468 33413 ft 443 kts 131°
2026-04-30 02:40 53.66701 91.53102 33411 ft 443 kts 131°
2026-04-30 02:41 53.62535 91.60753 33412 ft 443 kts 131°
2026-04-30 02:41 53.58372 91.68426 33399 ft 444 kts 131°
2026-04-30 02:42 53.54203 91.76094 33407 ft 444 kts 131°
2026-04-30 02:42 53.50027 91.83737 33404 ft 444 kts 131°
2026-04-30 02:43 53.45840 91.91357 33397 ft 444 kts 131°
2026-04-30 02:43 53.41656 91.98960 33402 ft 443 kts 131°
2026-04-30 02:44 53.37440 92.06403 33419 ft 444 kts 134°
2026-04-30 02:44 53.32925 92.13450 33407 ft 444 kts 135°
2026-04-30 02:45 53.28387 92.20456 33409 ft 444 kts 135°
2026-04-30 02:45 53.23859 92.27460 33407 ft 444 kts 135°
2026-04-30 02:46 53.19334 92.34465 33408 ft 443 kts 135°
2026-04-30 02:46 53.14813 92.41449 33408 ft 443 kts 135°
2026-04-30 02:47 53.10286 92.48419 33413 ft 443 kts 135°
2026-04-30 02:47 53.05767 92.55357 33436 ft 442 kts 135°
2026-04-30 02:48 53.01241 92.62286 33437 ft 442 kts 135°
2026-04-30 02:48 52.96713 92.69197 33429 ft 442 kts 134°
2026-04-30 02:49 52.92185 92.76086 33440 ft 442 kts 134°
2026-04-30 02:49 52.87661 92.82950 33449 ft 441 kts 134°
2026-04-30 02:50 52.83143 92.89783 33447 ft 439 kts 135°
2026-04-30 02:50 52.78629 92.96591 33459 ft 439 kts 135°
2026-04-30 02:51 52.74112 93.03382 33489 ft 439 kts 134°
2026-04-30 02:51 52.69583 93.10174 33489 ft 440 kts 134°
2026-04-30 02:52 52.65046 93.16957 33477 ft 440 kts 134°
2026-04-30 02:52 52.60511 93.23717 33503 ft 440 kts 134°
2026-04-30 02:53 52.55977 93.30456 33500 ft 439 kts 134°
2026-04-30 02:53 52.51480 93.37119 33505 ft 438 kts 134°
2026-04-30 02:54 52.46954 93.43808 33497 ft 437 kts 134°
2026-04-30 02:54 52.42435 93.50466 33528 ft 437 kts 134°
2026-04-30 02:55 52.37910 93.57115 33495 ft 437 kts 134°
2026-04-30 02:55 52.33394 93.63732 33500 ft 435 kts 134°
2026-04-30 02:56 52.28879 93.70329 33489 ft 435 kts 134°
2026-04-30 02:56 52.24362 93.76913 33495 ft 435 kts 134°
2026-04-30 02:57 52.19844 93.83479 33490 ft 435 kts 134°
2026-04-30 02:57 52.15491 93.90265 33483 ft 430 kts 126°
2026-04-30 02:58 52.12052 93.98109 33492 ft 424 kts 116°
2026-04-30 02:58 52.08995 94.06311 33478 ft 424 kts 116°
2026-04-30 02:59 52.05935 94.14493 33485 ft 423 kts 116°
2026-04-30 02:59 52.02855 94.22656 33480 ft 424 kts 116°
2026-04-30 03:00 51.99762 94.30799 33461 ft 424 kts 117°
2026-04-30 03:00 51.96663 94.38928 33472 ft 424 kts 117°
2026-04-30 03:01 51.93558 94.47044 33472 ft 423 kts 116°
2026-04-30 03:01 51.90455 94.55128 33458 ft 422 kts 117°
2026-04-30 03:02 51.87354 94.63184 33465 ft 421 kts 117°
2026-04-30 03:02 51.84252 94.71219 33461 ft 421 kts 117°
2026-04-30 03:03 51.81147 94.79235 33442 ft 421 kts 117°
2026-04-30 03:03 51.76477 94.91243 33456 ft 421 kts 117°
2026-04-30 03:04 51.73379 94.99179 33447 ft 421 kts 117°
2026-04-30 03:04 51.70256 95.07152 33447 ft 420 kts 117°
2026-04-30 03:05 51.67132 95.15105 33440 ft 420 kts 117°
2026-04-30 03:05 51.64509 95.21766 33451 ft 420 kts 117°
2026-04-30 03:06 51.60866 95.30984 33435 ft 420 kts 117°
2026-04-30 03:06 51.58236 95.37619 33443 ft 420 kts 117°
2026-04-30 03:07 51.55112 95.45477 33432 ft 419 kts 117°
2026-04-30 03:07 51.51969 95.53359 33430 ft 419 kts 117°
2026-04-30 03:08 51.48827 95.61216 33433 ft 418 kts 117°
2026-04-30 03:08 51.45680 95.69060 33435 ft 418 kts 117°
2026-04-30 03:09 51.42530 95.76890 33440 ft 418 kts 117°
2026-04-30 03:09 51.39373 95.84715 33443 ft 419 kts 118°
2026-04-30 03:10 51.36198 95.92558 33429 ft 421 kts 118°
2026-04-30 03:10 51.33010 96.00410 33427 ft 421 kts 118°
2026-04-30 03:11 51.29810 96.08266 33425 ft 422 kts 118°
2026-04-30 03:11 51.26598 96.16125 33424 ft 423 kts 118°
2026-04-30 03:12 51.23380 96.23982 33439 ft 423 kts 118°
2026-04-30 03:12 51.20152 96.31832 33435 ft 423 kts 118°
2026-04-30 03:13 51.16924 96.39660 33426 ft 422 kts 118°
2026-04-30 03:13 51.13697 96.47465 33431 ft 421 kts 118°
2026-04-30 03:14 51.10471 96.55242 33424 ft 420 kts 118°
2026-04-30 03:14 51.07251 96.62983 33427 ft 419 kts 118°
2026-04-30 03:15 51.04034 96.70695 33435 ft 418 kts 118°
2026-04-30 03:15 51.00812 96.78396 33435 ft 419 kts 118°
2026-04-30 03:16 50.97582 96.86089 33429 ft 419 kts 119°
2026-04-30 03:16 50.94368 96.93729 33441 ft 419 kts 119°
2026-04-30 03:17 50.91098 97.01475 33425 ft 421 kts 119°
2026-04-30 03:17 50.87836 97.09178 33433 ft 422 kts 119°
2026-04-30 03:18 50.84586 97.16831 33419 ft 421 kts 119°
2026-04-30 03:18 50.81314 97.24513 33430 ft 421 kts 119°
2026-04-30 03:19 50.78033 97.32196 33421 ft 422 kts 119°
2026-04-30 03:19 50.74745 97.39872 33435 ft 422 kts 120°
2026-04-30 03:20 50.71442 97.47559 33428 ft 423 kts 120°
2026-04-30 03:20 50.68135 97.55235 33430 ft 424 kts 120°
2026-04-30 03:21 50.64816 97.62919 33427 ft 424 kts 120°
2026-04-30 03:21 50.61496 97.70581 33437 ft 424 kts 120°
2026-04-30 03:22 50.58167 97.78243 33433 ft 424 kts 120°
2026-04-30 03:22 50.54840 97.85890 33442 ft 423 kts 120°
2026-04-30 03:23 50.51511 97.93525 33449 ft 424 kts 121°
2026-04-30 03:23 50.48175 98.01155 33455 ft 424 kts 121°
2026-04-30 03:24 50.44828 98.08783 33450 ft 424 kts 121°
2026-04-30 03:24 50.41479 98.16400 33461 ft 424 kts 121°
2026-04-30 03:25 50.38123 98.24016 33459 ft 425 kts 121°
2026-04-30 03:25 50.34752 98.31629 33458 ft 426 kts 121°
2026-04-30 03:26 50.31354 98.39235 33469 ft 426 kts 122°
2026-04-30 03:26 50.27945 98.46835 33440 ft 427 kts 122°
2026-04-30 03:27 50.24555 98.54380 33450 ft 427 kts 122°
2026-04-30 03:27 50.21137 98.61972 33458 ft 427 kts 122°
2026-04-30 03:28 50.17717 98.69546 33460 ft 427 kts 122°
2026-04-30 03:28 50.14290 98.77114 33436 ft 427 kts 122°
2026-04-30 03:29 50.10858 98.84670 33452 ft 426 kts 122°
2026-04-30 03:29 50.07428 98.92203 33444 ft 426 kts 122°
2026-04-30 03:30 50.03997 98.99717 33448 ft 425 kts 122°
2026-04-30 03:30 50.00572 99.07193 33445 ft 424 kts 122°
2026-04-30 03:31 49.97153 99.14636 33440 ft 423 kts 123°
2026-04-30 03:31 49.93730 99.22070 33454 ft 423 kts 123°
2026-04-30 03:32 49.90304 99.29488 33457 ft 423 kts 123°
2026-04-30 03:32 49.86867 99.36911 33441 ft 424 kts 123°
2026-04-30 03:33 49.83416 99.44341 33437 ft 425 kts 123°
2026-04-30 03:33 49.79952 99.51779 33444 ft 426 kts 123°
2026-04-30 03:34 49.76477 99.59221 33431 ft 427 kts 124°
2026-04-30 03:34 49.73001 99.66641 33440 ft 425 kts 124°
2026-04-30 03:35 49.69531 99.74031 33438 ft 425 kts 124°
2026-04-30 03:35 49.66063 99.81398 33427 ft 424 kts 124°
2026-04-30 03:36 49.62599 99.88738 33436 ft 423 kts 124°
2026-04-30 03:36 49.59132 99.96054 33433 ft 423 kts 125°
2026-04-30 03:37 49.55658 100.03364 33436 ft 423 kts 125°
2026-04-30 03:37 49.52179 100.10672 33437 ft 424 kts 125°
2026-04-30 03:38 49.48691 100.17980 33434 ft 424 kts 125°
2026-04-30 03:38 49.45200 100.25278 33433 ft 424 kts 125°
2026-04-30 03:39 49.41698 100.32576 33432 ft 424 kts 126°
2026-04-30 03:39 49.38213 100.39817 33425 ft 424 kts 126°
2026-04-30 03:40 49.34706 100.47088 33428 ft 424 kts 126°
2026-04-30 03:40 49.31187 100.54364 33427 ft 425 kts 126°
2026-04-30 03:41 49.27662 100.61632 33430 ft 425 kts 126°
2026-04-30 03:41 49.24128 100.68901 33415 ft 426 kts 127°
2026-04-30 03:42 49.20576 100.76183 33418 ft 428 kts 127°
2026-04-30 03:42 49.17007 100.83480 33430 ft 429 kts 127°
2026-04-30 03:43 49.13418 100.90797 33432 ft 431 kts 127°
2026-04-30 03:43 49.09815 100.98127 33428 ft 432 kts 127°
2026-04-30 03:44 49.06201 101.05456 33432 ft 432 kts 127°
2026-04-30 03:44 49.02580 101.12785 33424 ft 433 kts 128°
2026-04-30 03:45 48.98946 101.20111 33437 ft 434 kts 128°
2026-04-30 03:45 48.95308 101.27431 33432 ft 434 kts 129°
2026-04-30 03:46 48.91661 101.34746 33433 ft 434 kts 129°
2026-04-30 03:46 48.88011 101.42050 33434 ft 434 kts 129°
2026-04-30 03:47 48.84355 101.49347 33428 ft 434 kts 129°
2026-04-30 03:47 48.80691 101.56639 33430 ft 434 kts 129°
2026-04-30 03:48 48.77023 101.63924 33421 ft 435 kts 130°
2026-04-30 03:48 48.73291 101.71307 33637 ft 451 kts 130°
2026-04-30 03:49 48.71358 101.75116 33731 ft 462 kts 130°
2026-04-30 03:49 48.69377 101.79008 33831 ft 472 kts 130°
2026-04-30 03:49 48.67352 101.82982 33934 ft 482 kts 130°
2026-04-30 03:49 48.65288 101.87030 34043 ft 490 kts 130°
2026-04-30 03:50 48.63193 101.91138 34243 ft 495 kts 130°
2026-04-30 03:50 48.61082 101.95272 34551 ft 497 kts 130°
2026-04-30 03:50 48.58999 101.99347 34892 ft 497 kts 130°
2026-04-30 03:50 48.57572 102.02137 35133 ft 497 kts 130°
2026-04-30 03:51 48.54769 102.07604 35580 ft 497 kts 130°
2026-04-30 03:51 48.52648 102.11731 35891 ft 498 kts 130°
2026-04-30 03:51 48.50526 102.15854 36201 ft 498 kts 130°
2026-04-30 03:51 48.48397 102.19983 36354 ft 501 kts 130°
2026-04-30 03:52 48.44799 102.26948 36400 ft 503 kts 130°
2026-04-30 03:52 48.40524 102.35203 36384 ft 496 kts 130°
2026-04-30 03:53 48.36313 102.43308 36395 ft 494 kts 130°
2026-04-30 03:53 48.32082 102.51426 36392 ft 493 kts 130°
2026-04-30 03:54 48.27847 102.59527 36392 ft 494 kts 130°
2026-04-30 03:54 48.23598 102.67629 36388 ft 495 kts 130°
2026-04-30 03:55 48.19329 102.75748 36391 ft 496 kts 130°
2026-04-30 03:55 48.15044 102.83872 36389 ft 497 kts 130°
2026-04-30 03:56 48.10747 102.91995 36379 ft 498 kts 130°
2026-04-30 03:56 48.06434 103.00125 36390 ft 499 kts 130°
2026-04-30 03:57 48.02107 103.08255 36387 ft 500 kts 130°
2026-04-30 03:57 47.97769 103.16384 36380 ft 501 kts 130°
2026-04-30 03:58 47.93422 103.24511 36377 ft 501 kts 130°
2026-04-30 03:58 47.89062 103.32628 36369 ft 502 kts 130°
2026-04-30 03:59 47.84691 103.40733 36366 ft 502 kts 131°
2026-04-30 03:59 47.80318 103.48826 36371 ft 502 kts 131°
2026-04-30 04:00 47.75935 103.56917 36371 ft 502 kts 131°
2026-04-30 04:00 47.71545 103.64998 36367 ft 503 kts 131°
2026-04-30 04:01 47.67143 103.73077 36362 ft 504 kts 131°
2026-04-30 04:01 47.62728 103.81156 36356 ft 504 kts 131°
2026-04-30 04:02 47.58311 103.89216 36352 ft 504 kts 131°
2026-04-30 04:02 47.53889 103.97260 36353 ft 503 kts 131°
2026-04-30 04:03 47.49493 104.05235 36354 ft 503 kts 131°
2026-04-30 04:03 47.45063 104.13252 36353 ft 504 kts 131°
2026-04-30 04:04 47.40625 104.21251 36349 ft 504 kts 132°
2026-04-30 04:04 47.36175 104.29240 36346 ft 504 kts 132°
2026-04-30 04:05 47.31719 104.37219 36334 ft 504 kts 132°
2026-04-30 04:05 47.27260 104.45187 36333 ft 504 kts 132°
2026-04-30 04:06 47.22804 104.53128 36323 ft 503 kts 132°
2026-04-30 04:06 47.18338 104.61064 36320 ft 503 kts 132°
2026-04-30 04:07 47.13840 104.69029 36322 ft 511 kts 132°
2026-04-30 04:08 47.06938 104.81207 36302 ft 519 kts 132°
2026-04-30 04:08 47.02316 104.89342 36287 ft 517 kts 133°
2026-04-30 04:09 46.97726 104.97393 36282 ft 514 kts 133°
2026-04-30 04:09 46.93127 105.05430 36288 ft 516 kts 133°
2026-04-30 04:10 46.88512 105.13472 36287 ft 517 kts 133°
2026-04-30 04:10 46.83881 105.21520 36275 ft 517 kts 133°
2026-04-30 04:11 46.79242 105.29559 36268 ft 518 kts 133°
2026-04-30 04:11 46.74625 105.37538 36269 ft 518 kts 133°
2026-04-30 04:12 46.69976 105.45547 36240 ft 517 kts 133°
2026-04-30 04:12 46.65337 105.53517 36253 ft 515 kts 133°
2026-04-30 04:13 46.60703 105.61453 36244 ft 514 kts 134°
2026-04-30 04:13 46.56069 105.69369 36231 ft 514 kts 134°
2026-04-30 04:14 46.51429 105.77271 36234 ft 514 kts 134°
2026-04-30 04:14 46.46784 105.85165 36208 ft 514 kts 134°
2026-04-30 04:15 46.42130 105.93041 36217 ft 514 kts 134°
2026-04-30 04:15 46.37481 106.00872 36209 ft 514 kts 134°
2026-04-30 04:16 46.32806 106.08730 36208 ft 514 kts 134°
2026-04-30 04:16 46.28135 106.16565 36207 ft 514 kts 134°
2026-04-30 04:17 46.23454 106.24396 36200 ft 515 kts 134°
2026-04-30 04:17 46.18763 106.32220 36185 ft 516 kts 134°
2026-04-30 04:18 46.14062 106.40039 36190 ft 516 kts 134°
2026-04-30 04:18 46.09345 106.47862 36187 ft 516 kts 134°
2026-04-30 04:19 46.04623 106.55670 36184 ft 517 kts 134°
2026-04-30 04:19 45.99927 106.63416 36183 ft 517 kts 134°
2026-04-30 04:20 45.95191 106.71207 36175 ft 518 kts 134°
2026-04-30 04:20 45.90449 106.78988 36174 ft 518 kts 134°
2026-04-30 04:21 45.85702 106.86750 36170 ft 517 kts 135°
2026-04-30 04:21 45.80949 106.94492 36163 ft 517 kts 135°
2026-04-30 04:22 45.76189 107.02229 36163 ft 517 kts 135°
2026-04-30 04:22 45.71433 107.09944 36161 ft 517 kts 135°
2026-04-30 04:23 45.66675 107.17642 36129 ft 517 kts 135°
2026-04-30 04:23 45.61918 107.25318 36149 ft 515 kts 135°
2026-04-30 04:24 45.57164 107.32965 36153 ft 515 kts 135°
2026-04-30 04:24 45.52439 107.40543 36150 ft 514 kts 135°
2026-04-30 04:25 45.47683 107.48151 36149 ft 514 kts 135°
2026-04-30 04:25 45.42925 107.55742 36147 ft 514 kts 135°
2026-04-30 04:26 45.38164 107.63317 36127 ft 514 kts 135°
2026-04-30 04:26 45.33398 107.70878 36140 ft 514 kts 135°
2026-04-30 04:27 45.28622 107.78435 36143 ft 514 kts 136°
2026-04-30 04:27 45.23840 107.85983 36138 ft 514 kts 136°
2026-04-30 04:28 45.19049 107.93524 36137 ft 515 kts 136°
2026-04-30 04:28 45.14251 108.01054 36135 ft 515 kts 136°
2026-04-30 04:29 45.09446 108.08575 36123 ft 515 kts 136°
2026-04-30 04:29 45.04671 108.16031 36126 ft 515 kts 136°
2026-04-30 04:30 44.99860 108.23522 36137 ft 515 kts 136°
2026-04-30 04:30 44.95045 108.31003 36128 ft 515 kts 136°
2026-04-30 04:31 44.90226 108.38466 36123 ft 515 kts 136°
2026-04-30 04:31 44.85395 108.45917 36100 ft 515 kts 136°
2026-04-30 04:32 44.80564 108.53351 36103 ft 514 kts 136°
2026-04-30 04:32 44.75729 108.60774 36105 ft 514 kts 136°
2026-04-30 04:33 44.70889 108.68190 36094 ft 515 kts 136°
2026-04-30 04:33 44.66043 108.75594 36087 ft 515 kts 136°
2026-04-30 04:34 44.61189 108.82990 36093 ft 515 kts 136°
2026-04-30 04:34 44.56332 108.90371 36072 ft 515 kts 136°
2026-04-30 04:35 44.51469 108.97742 36075 ft 515 kts 136°
2026-04-30 04:35 44.46605 109.05094 36075 ft 515 kts 136°
2026-04-30 04:36 44.41728 109.12446 36066 ft 516 kts 136°
2026-04-30 04:36 44.36837 109.19800 36062 ft 518 kts 136°
2026-04-30 04:37 44.31920 109.27173 36056 ft 519 kts 136°
2026-04-30 04:37 44.26989 109.34550 36053 ft 520 kts 136°
2026-04-30 04:38 44.22051 109.41918 36053 ft 520 kts 136°
2026-04-30 04:38 44.17133 109.49235 36052 ft 521 kts 136°
2026-04-30 04:39 44.12180 109.56587 36047 ft 520 kts 136°
2026-04-30 04:39 44.07223 109.63924 36034 ft 520 kts 136°
2026-04-30 04:40 44.02268 109.71238 36028 ft 519 kts 136°
2026-04-30 04:40 43.97311 109.78538 36031 ft 519 kts 136°
2026-04-30 04:41 43.92349 109.85824 36019 ft 519 kts 137°
2026-04-30 04:41 43.87382 109.93100 36019 ft 519 kts 137°
2026-04-30 04:42 43.82412 110.00361 36016 ft 520 kts 137°
2026-04-30 04:42 43.77430 110.07620 35993 ft 520 kts 137°
2026-04-30 04:43 43.72445 110.14867 35994 ft 520 kts 137°
2026-04-30 04:43 43.67449 110.22109 36002 ft 520 kts 137°
2026-04-30 04:44 43.62447 110.29341 35985 ft 521 kts 137°
2026-04-30 04:44 43.58291 110.35338 35987 ft 521 kts 137°
2026-04-30 04:45 43.53280 110.42551 35985 ft 521 kts 137°
2026-04-30 04:45 43.48263 110.49752 35970 ft 521 kts 137°
2026-04-30 04:46 43.43248 110.56934 35968 ft 520 kts 137°
2026-04-30 04:46 43.38223 110.64112 35961 ft 520 kts 137°
2026-04-30 04:47 43.33202 110.71266 35961 ft 520 kts 136°
2026-04-30 04:47 43.28176 110.78414 35948 ft 520 kts 137°
2026-04-30 04:48 43.22991 110.85283 35938 ft 515 kts 146°
2026-04-30 04:48 43.16856 110.90157 35949 ft 507 kts 161°
2026-04-30 04:49 43.10199 110.93106 35947 ft 502 kts 168°
2026-04-30 04:49 43.03533 110.95802 35923 ft 504 kts 167°
2026-04-30 04:50 42.96778 110.98599 35936 ft 504 kts 167°
2026-04-30 04:50 42.90107 111.01404 35939 ft 505 kts 167°
2026-04-30 04:51 42.83382 111.04235 35936 ft 506 kts 167°
2026-04-30 04:51 42.76643 111.07061 35946 ft 507 kts 167°
2026-04-30 04:52 42.69903 111.09879 35943 ft 507 kts 167°
2026-04-30 04:52 42.63155 111.12693 35942 ft 507 kts 167°
2026-04-30 04:53 42.56405 111.15501 35951 ft 508 kts 167°
2026-04-30 04:53 42.49645 111.18308 35957 ft 509 kts 167°
2026-04-30 04:54 42.42864 111.21117 35951 ft 510 kts 167°
2026-04-30 04:54 42.36079 111.23921 35959 ft 510 kts 167°
2026-04-30 04:55 42.29286 111.26723 35964 ft 511 kts 167°
2026-04-30 04:55 42.22477 111.29527 35976 ft 512 kts 167°
2026-04-30 04:56 42.15668 111.32325 35974 ft 512 kts 167°
2026-04-30 04:56 42.08845 111.35132 35985 ft 513 kts 167°
2026-04-30 04:57 42.02020 111.37937 35983 ft 513 kts 167°
2026-04-30 04:57 41.95183 111.40741 35979 ft 514 kts 166°
2026-04-30 04:58 41.88340 111.43540 35993 ft 514 kts 166°
2026-04-30 04:58 41.81495 111.46333 35999 ft 515 kts 166°
2026-04-30 04:59 41.74640 111.49124 35985 ft 515 kts 166°
2026-04-30 04:59 41.67779 111.51912 36008 ft 515 kts 166°
2026-04-30 05:00 41.60911 111.54696 36010 ft 516 kts 167°
2026-04-30 05:00 41.54077 111.57459 36008 ft 517 kts 166°
2026-04-30 05:01 41.47192 111.60238 36021 ft 517 kts 166°
2026-04-30 05:01 41.40292 111.63017 36022 ft 518 kts 166°
2026-04-30 05:02 41.33388 111.65792 36015 ft 518 kts 166°
2026-04-30 05:02 41.26478 111.68561 36031 ft 519 kts 166°
2026-04-30 05:03 41.19567 111.71326 36042 ft 519 kts 166°
2026-04-30 05:03 41.12650 111.74087 36049 ft 519 kts 166°
2026-04-30 05:04 41.05726 111.76845 36066 ft 519 kts 166°
2026-04-30 05:04 40.98806 111.79595 36078 ft 519 kts 166°
2026-04-30 05:05 40.91880 111.82342 36079 ft 519 kts 166°
2026-04-30 05:05 40.84961 111.85080 36076 ft 519 kts 166°
2026-04-30 05:06 40.74562 111.89186 36061 ft 520 kts 166°
2026-04-30 05:06 40.67557 111.91474 36059 ft 518 kts 171°
2026-04-30 05:07 40.60489 111.93415 36067 ft 519 kts 172°
2026-04-30 05:07 40.53378 111.95017 36065 ft 519 kts 174°
2026-04-30 05:08 40.46250 111.96541 36059 ft 520 kts 173°
2026-04-30 05:08 40.39116 111.98149 36062 ft 521 kts 173°
2026-04-30 05:09 40.31977 111.99879 36070 ft 522 kts 172°
2026-04-30 05:09 40.24886 112.01632 36050 ft 522 kts 172°
2026-04-30 05:10 40.17735 112.03373 36063 ft 523 kts 172°
2026-04-30 05:10 40.10585 112.05140 36072 ft 524 kts 172°
2026-04-30 05:11 40.03418 112.06913 36053 ft 524 kts 172°
2026-04-30 05:11 39.96240 112.08677 36068 ft 525 kts 172°
2026-04-30 05:12 39.89056 112.10429 36074 ft 526 kts 172°
2026-04-30 05:12 39.81858 112.12180 36068 ft 526 kts 172°
2026-04-30 05:13 39.74660 112.13933 36074 ft 527 kts 172°
2026-04-30 05:13 39.67445 112.15685 36064 ft 528 kts 172°
2026-04-30 05:14 39.60212 112.17436 36069 ft 529 kts 172°
2026-04-30 05:14 39.52962 112.19190 36071 ft 530 kts 172°
2026-04-30 05:15 39.45712 112.20945 36065 ft 531 kts 172°
2026-04-30 05:15 39.38453 112.22728 36059 ft 531 kts 172°
2026-04-30 05:16 39.31196 112.24516 36066 ft 532 kts 172°
2026-04-30 05:16 39.23920 112.26300 36066 ft 532 kts 172°
2026-04-30 05:17 39.16650 112.28074 36054 ft 532 kts 172°
2026-04-30 05:17 39.09373 112.29848 36064 ft 532 kts 172°
2026-04-30 05:18 39.02143 112.31608 36061 ft 532 kts 172°
2026-04-30 05:18 38.94858 112.33378 36055 ft 533 kts 172°
2026-04-30 05:19 38.87570 112.35144 36053 ft 533 kts 172°
2026-04-30 05:19 38.80278 112.36907 36055 ft 533 kts 172°
2026-04-30 05:20 38.72987 112.38667 36061 ft 533 kts 172°
2026-04-30 05:20 38.65691 112.40424 36032 ft 533 kts 172°
2026-04-30 05:21 38.58404 112.42172 36038 ft 533 kts 172°
2026-04-30 05:21 38.51111 112.43928 36043 ft 533 kts 172°
2026-04-30 05:22 38.43806 112.45674 36040 ft 535 kts 172°
2026-04-30 05:22 38.36472 112.47409 36041 ft 537 kts 172°
2026-04-30 05:23 38.29115 112.49139 36021 ft 539 kts 172°
2026-04-30 05:23 38.21733 112.50876 36020 ft 540 kts 172°
2026-04-30 05:24 38.14339 112.52615 36025 ft 541 kts 172°
2026-04-30 05:24 38.06926 112.54354 36026 ft 542 kts 172°
2026-04-30 05:25 37.99517 112.56090 36015 ft 542 kts 172°
2026-04-30 05:25 37.92104 112.57824 36042 ft 542 kts 172°
2026-04-30 05:26 37.84681 112.59564 36048 ft 542 kts 172°
2026-04-30 05:26 37.77267 112.61353 36041 ft 542 kts 172°
2026-04-30 05:27 37.69912 112.63519 36050 ft 544 kts 167°
2026-04-30 05:27 37.62645 112.65991 36048 ft 544 kts 167°
2026-04-30 05:28 37.55323 112.68428 36034 ft 545 kts 167°
2026-04-30 05:28 37.47986 112.70873 36033 ft 545 kts 167°
2026-04-30 05:29 37.40639 112.73322 36037 ft 546 kts 167°
2026-04-30 05:29 37.33284 112.75769 36035 ft 547 kts 167°
2026-04-30 05:30 37.25925 112.78208 36026 ft 547 kts 167°
2026-04-30 05:30 37.18561 112.80652 36043 ft 548 kts 167°
2026-04-30 05:31 37.11189 112.83090 36034 ft 548 kts 167°
2026-04-30 05:31 37.03825 112.85517 36025 ft 548 kts 167°
2026-04-30 05:32 36.97698 112.87540 36030 ft 548 kts 167°
2026-04-30 05:32 36.90331 112.89977 36022 ft 548 kts 167°
2026-04-30 05:33 36.81715 112.92822 36007 ft 548 kts 167°
2026-04-30 05:33 36.75593 112.94838 36027 ft 548 kts 167°
2026-04-30 05:34 36.68213 112.97263 36021 ft 548 kts 167°
2026-04-30 05:34 36.60829 112.99685 36038 ft 549 kts 167°
2026-04-30 05:35 36.53441 113.02105 36029 ft 549 kts 167°
2026-04-30 05:35 36.46050 113.04519 36033 ft 549 kts 167°
2026-04-30 05:36 36.38656 113.06931 36028 ft 550 kts 167°
2026-04-30 05:36 36.31259 113.09340 36031 ft 549 kts 167°
2026-04-30 05:37 36.23916 113.11753 36053 ft 550 kts 166°
2026-04-30 05:37 36.16682 113.14882 36049 ft 551 kts 161°
2026-04-30 05:38 36.09441 113.18201 36022 ft 551 kts 161°
2026-04-30 05:38 36.02284 113.21427 36051 ft 551 kts 162°
2026-04-30 05:39 35.95070 113.24639 36051 ft 551 kts 162°
2026-04-30 05:39 35.87856 113.27849 36056 ft 551 kts 162°
2026-04-30 05:40 35.80639 113.31067 36045 ft 552 kts 162°
2026-04-30 05:40 35.73425 113.34313 36049 ft 552 kts 162°
2026-04-30 05:41 35.66210 113.37555 36046 ft 552 kts 162°
2026-04-30 05:41 35.58983 113.40785 36029 ft 553 kts 162°
2026-04-30 05:42 35.51743 113.43963 36054 ft 553 kts 162°
2026-04-30 05:42 35.44489 113.47144 36035 ft 554 kts 162°
2026-04-30 05:43 35.37232 113.50360 36026 ft 554 kts 162°
2026-04-30 05:43 35.29990 113.53590 36018 ft 554 kts 162°
2026-04-30 05:44 35.22748 113.56810 36026 ft 554 kts 162°
2026-04-30 05:44 35.15505 113.60019 36024 ft 554 kts 162°
2026-04-30 05:45 35.08265 113.63219 36000 ft 554 kts 162°
2026-04-30 05:45 35.01072 113.66395 36025 ft 553 kts 163°
2026-04-30 05:46 34.93832 113.69585 36028 ft 553 kts 163°
2026-04-30 05:46 34.86580 113.72764 36036 ft 553 kts 164°
2026-04-30 05:47 34.79201 113.75339 36060 ft 551 kts 169°
2026-04-30 05:47 34.71784 113.77719 36053 ft 552 kts 169°
2026-04-30 05:48 34.64368 113.80144 36046 ft 552 kts 169°
2026-04-30 05:48 34.56953 113.82600 36029 ft 552 kts 169°
2026-04-30 05:49 34.49540 113.85036 36044 ft 552 kts 169°
2026-04-30 05:49 34.42114 113.87394 36050 ft 551 kts 169°
2026-04-30 05:50 34.34682 113.89727 36055 ft 552 kts 169°
2026-04-30 05:50 34.27258 113.92067 36052 ft 551 kts 170°
2026-04-30 05:51 34.19831 113.94410 36060 ft 552 kts 170°
2026-04-30 05:51 34.12400 113.96752 36061 ft 552 kts 170°
2026-04-30 05:52 34.04958 113.99093 36065 ft 553 kts 170°
2026-04-30 05:52 33.97514 114.01430 36073 ft 553 kts 170°
2026-04-30 05:53 33.90118 114.03748 36071 ft 553 kts 170°
2026-04-30 05:53 33.82667 114.06078 36071 ft 553 kts 170°
2026-04-30 05:54 33.75222 114.08404 36084 ft 553 kts 171°
2026-04-30 05:54 33.67774 114.10724 36075 ft 553 kts 171°
2026-04-30 05:55 33.60330 114.13040 36078 ft 553 kts 171°
2026-04-30 05:55 33.52887 114.15354 36061 ft 552 kts 171°
2026-04-30 05:56 33.45452 114.17659 36086 ft 552 kts 171°
2026-04-30 05:56 33.41785 114.19028 36067 ft 557 kts 160°
2026-04-30 05:56 33.38454 114.21434 36100 ft 565 kts 142°
2026-04-30 05:57 33.35686 114.24787 36097 ft 569 kts 127°
2026-04-30 05:57 33.33637 114.28820 36085 ft 567 kts 110°
2026-04-30 05:57 33.31081 114.37689 36091 ft 566 kts 106°
2026-04-30 05:58 33.28365 114.46562 36104 ft 571 kts 109°
2026-04-30 05:58 33.25569 114.55464 36098 ft 573 kts 108°
2026-04-30 05:59 33.22829 114.64396 36098 ft 573 kts 108°
2026-04-30 05:59 33.20064 114.73323 36096 ft 573 kts 108°
2026-04-30 06:00 33.17258 114.82217 36098 ft 572 kts 108°
2026-04-30 06:00 33.14443 114.91074 36075 ft 571 kts 108°
2026-04-30 06:01 33.11629 114.99928 36103 ft 571 kts 108°
2026-04-30 06:01 33.08829 115.08732 36115 ft 572 kts 109°
2026-04-30 06:02 33.06000 115.17600 36101 ft 573 kts 109°
2026-04-30 06:02 33.03161 115.26472 36112 ft 573 kts 109°
2026-04-30 06:03 33.00313 115.35351 36116 ft 574 kts 109°
2026-04-30 06:03 32.97454 115.44239 36110 ft 575 kts 109°
2026-04-30 06:04 32.94639 115.53146 36111 ft 574 kts 109°
2026-04-30 06:05 32.90433 115.66495 36141 ft 575 kts 111°
2026-04-30 06:05 32.86734 115.74934 36122 ft 575 kts 123°
2026-04-30 06:06 32.81979 115.82544 36122 ft 573 kts 132°
2026-04-30 06:06 32.76802 115.89733 36123 ft 572 kts 132°
2026-04-30 06:07 32.71663 115.96941 36131 ft 572 kts 132°
2026-04-30 06:07 32.66561 116.04188 36127 ft 572 kts 132°
2026-04-30 06:08 32.61456 116.11427 36120 ft 571 kts 132°
2026-04-30 06:08 32.56349 116.18654 36128 ft 572 kts 132°
2026-04-30 06:09 32.51279 116.25942 36155 ft 574 kts 131°
2026-04-30 06:09 32.46273 116.33236 36139 ft 574 kts 132°
2026-04-30 06:10 32.41223 116.40557 36130 ft 574 kts 132°
2026-04-30 06:10 32.36153 116.47869 36133 ft 574 kts 132°
2026-04-30 06:11 32.31084 116.55164 36132 ft 574 kts 132°
2026-04-30 06:11 32.26025 116.62438 36130 ft 572 kts 133°
2026-04-30 06:12 32.20961 116.69701 36134 ft 573 kts 133°
2026-04-30 06:12 32.15872 116.76934 36132 ft 572 kts 134°
2026-04-30 06:13 32.10715 116.84082 36134 ft 572 kts 134°
2026-04-30 06:13 32.05557 116.91226 36132 ft 572 kts 135°
2026-04-30 06:14 32.00406 116.98376 36126 ft 572 kts 135°
2026-04-30 06:14 31.95263 117.05514 36130 ft 572 kts 134°
2026-04-30 06:15 31.90165 117.12613 36122 ft 571 kts 135°
2026-04-30 06:15 31.85039 117.19751 36141 ft 571 kts 135°
2026-04-30 06:16 31.80135 117.27105 36136 ft 577 kts 124°
2026-04-30 06:16 31.78360 117.31356 36160 ft 582 kts 113°
2026-04-30 06:16 31.77124 117.35888 36150 ft 584 kts 104°
2026-04-30 06:16 31.76510 117.40592 36148 ft 583 kts 93°
2026-04-30 06:17 31.76243 117.45344 36161 ft 583 kts 92°
2026-04-30 06:17 31.75753 117.54876 36147 ft 585 kts 93°
2026-04-30 06:18 31.75144 117.64434 36147 ft 587 kts 94°
2026-04-30 06:18 31.74456 117.73994 36155 ft 588 kts 95°
2026-04-30 06:19 31.73755 117.83577 36147 ft 589 kts 95°
2026-04-30 06:19 31.73061 117.93169 36152 ft 589 kts 94°
2026-04-30 06:20 31.72363 118.02745 36169 ft 588 kts 94°
2026-04-30 06:20 31.71662 118.12288 36138 ft 585 kts 95°
2026-04-30 06:21 31.70992 118.21786 36148 ft 583 kts 94°
2026-04-30 06:21 31.70338 118.31266 36150 ft 582 kts 95°
2026-04-30 06:22 31.69673 118.40739 36140 ft 582 kts 95°
2026-04-30 06:22 31.68998 118.50164 36147 ft 584 kts 95°
2026-04-30 06:23 31.68309 118.59674 36146 ft 585 kts 95°
2026-04-30 06:23 31.67613 118.69214 36129 ft 587 kts 96°
2026-04-30 06:24 31.66908 118.78765 36133 ft 588 kts 96°
2026-04-30 06:24 31.66194 118.88340 36131 ft 589 kts 96°
2026-04-30 06:25 31.65596 118.96306 36133 ft 590 kts 96°
2026-04-30 06:25 31.64862 119.05887 36133 ft 587 kts 96°
2026-04-30 06:26 31.64428 119.15353 36120 ft 582 kts 94°
2026-04-30 06:26 31.64239 119.20134 35569 ft 590 kts 94°
2026-04-30 06:26 31.64028 119.24926 35081 ft 584 kts 94°
2026-04-30 06:26 31.63809 119.29659 34620 ft 578 kts 95°
2026-04-30 06:27 31.63587 119.34340 34216 ft 572 kts 95°
2026-04-30 06:27 31.63367 119.38976 33652 ft 567 kts 95°
2026-04-30 06:27 31.63149 119.43579 33172 ft 562 kts 95°
2026-04-30 06:27 31.62931 119.48133 32696 ft 556 kts 95°
2026-04-30 06:28 31.62715 119.52631 32251 ft 550 kts 95°
2026-04-30 06:28 31.62500 119.57092 31781 ft 545 kts 96°
2026-04-30 06:28 31.62285 119.61501 31353 ft 539 kts 96°
2026-04-30 06:28 31.62071 119.65875 30924 ft 535 kts 96°
2026-04-30 06:29 31.61860 119.70204 30495 ft 530 kts 95°
2026-04-30 06:29 31.61661 119.74516 30044 ft 526 kts 95°
2026-04-30 06:29 31.61469 119.78784 29529 ft 522 kts 95°
2026-04-30 06:29 31.61280 119.83012 29037 ft 517 kts 95°
2026-04-30 06:30 31.61091 119.87198 28609 ft 511 kts 96°
2026-04-30 06:30 31.60901 119.91341 28171 ft 506 kts 96°
2026-04-30 06:30 31.60709 119.95446 27727 ft 502 kts 96°
2026-04-30 06:30 31.60517 119.99514 27293 ft 497 kts 95°
2026-04-30 06:31 31.60325 120.03548 26867 ft 493 kts 95°
2026-04-30 06:31 31.60134 120.07549 26440 ft 490 kts 95°
2026-04-30 06:31 31.59943 120.11524 25976 ft 486 kts 95°
2026-04-30 06:31 31.59753 120.15473 25559 ft 483 kts 96°
2026-04-30 06:32 31.59563 120.19390 25153 ft 479 kts 96°
2026-04-30 06:32 31.59373 120.23273 24742 ft 476 kts 96°
2026-04-30 06:32 31.59184 120.27094 24322 ft 474 kts 96°
2026-04-30 06:32 31.58819 120.30911 23894 ft 469 kts 103°
2026-04-30 06:33 31.58154 120.34636 23416 ft 464 kts 109°
2026-04-30 06:33 31.57186 120.38222 22951 ft 457 kts 114°
2026-04-30 06:33 31.56130 120.41720 22501 ft 453 kts 115°
2026-04-30 06:33 31.55079 120.45182 22096 ft 449 kts 115°
2026-04-30 06:34 31.54042 120.48617 21670 ft 445 kts 115°
2026-04-30 06:34 31.53021 120.52026 21246 ft 442 kts 114°
2026-04-30 06:34 31.52014 120.55411 20844 ft 438 kts 114°
2026-04-30 06:34 31.51019 120.58769 20431 ft 435 kts 114°
2026-04-30 06:35 31.50030 120.62106 20017 ft 432 kts 114°
2026-04-30 06:35 31.49046 120.65423 19603 ft 429 kts 114°
2026-04-30 06:35 31.48070 120.68711 19185 ft 426 kts 113°
2026-04-30 06:35 31.47096 120.71986 18775 ft 424 kts 113°
2026-04-30 06:36 31.46129 120.75236 18358 ft 422 kts 113°
2026-04-30 06:36 31.45166 120.78467 17877 ft 419 kts 112°
2026-04-30 06:36 31.44195 120.81666 17432 ft 415 kts 113°
2026-04-30 06:36 31.43208 120.84830 17019 ft 411 kts 113°
2026-04-30 06:37 31.42229 120.87959 16601 ft 408 kts 113°
2026-04-30 06:37 31.41260 120.91063 16193 ft 404 kts 112°
2026-04-30 06:37 31.40290 120.94134 15826 ft 398 kts 115°
2026-04-30 06:37 31.38954 120.96843 15632 ft 371 kts 135°
2026-04-30 06:38 31.37294 120.99103 15506 ft 364 kts 137°
2026-04-30 06:38 31.35653 121.01342 15348 ft 362 kts 136°
2026-04-30 06:38 31.34031 121.03584 15161 ft 360 kts 136°
2026-04-30 06:38 31.32428 121.05822 14893 ft 358 kts 135°
2026-04-30 06:39 31.30832 121.08065 14555 ft 358 kts 135°
2026-04-30 06:39 31.29246 121.10302 14217 ft 358 kts 135°
2026-04-30 06:39 31.27662 121.12538 13891 ft 356 kts 134°
2026-04-30 06:39 31.26087 121.14765 13580 ft 354 kts 134°
2026-04-30 06:40 31.24528 121.16969 13284 ft 351 kts 134°
2026-04-30 06:40 31.22975 121.19163 13014 ft 347 kts 134°
2026-04-30 06:40 31.21454 121.21313 12953 ft 341 kts 134°
2026-04-30 06:40 31.19937 121.23452 12938 ft 344 kts 133°
2026-04-30 06:41 31.18403 121.25614 12937 ft 348 kts 134°
2026-04-30 06:41 31.16851 121.27802 12912 ft 350 kts 134°
2026-04-30 06:41 31.15299 121.29987 12904 ft 349 kts 134°
2026-04-30 06:41 31.13751 121.32165 12901 ft 349 kts 134°
2026-04-30 06:42 31.12332 121.34397 12875 ft 348 kts 122°
2026-04-30 06:42 31.11505 121.37078 12597 ft 356 kts 105°
2026-04-30 06:42 31.10912 121.39886 12291 ft 357 kts 105°
2026-04-30 06:42 31.10313 121.42691 11959 ft 355 kts 105°
2026-04-30 06:43 31.09706 121.45465 11648 ft 351 kts 105°
2026-04-30 06:43 31.09096 121.48198 11331 ft 347 kts 105°
2026-04-30 06:43 31.08481 121.50909 10992 ft 344 kts 105°
2026-04-30 06:43 31.07866 121.53597 10667 ft 341 kts 105°
2026-04-30 06:44 31.07255 121.56256 10378 ft 338 kts 105°
2026-04-30 06:44 31.06649 121.58885 10082 ft 334 kts 105°
2026-04-30 06:44 31.06050 121.61482 9881 ft 327 kts 104°
2026-04-30 06:44 31.05465 121.64016 9740 ft 321 kts 104°
2026-04-30 06:45 31.04891 121.66495 9690 ft 312 kts 104°
2026-04-30 06:45 31.04334 121.68897 9611 ft 301 kts 104°
2026-04-30 06:45 31.04075 121.71238 9396 ft 286 kts 80°
2026-04-30 06:45 31.04570 121.73411 9174 ft 273 kts 68°
2026-04-30 06:46 31.05167 121.75494 8959 ft 268 kts 68°
2026-04-30 06:46 31.05740 121.77522 8703 ft 265 kts 68°
2026-04-30 06:46 31.06314 121.79557 8413 ft 264 kts 68°
2026-04-30 06:46 31.06885 121.81587 8119 ft 263 kts 68°
2026-04-30 06:47 31.07453 121.83608 7851 ft 261 kts 68°
2026-04-30 06:47 31.08014 121.85612 7600 ft 258 kts 68°
2026-04-30 06:47 31.08566 121.87593 7357 ft 256 kts 68°
2026-04-30 06:47 31.09114 121.89562 7065 ft 254 kts 68°
2026-04-30 06:48 31.09656 121.91514 6805 ft 251 kts 68°
2026-04-30 06:48 31.10155 121.93447 6528 ft 247 kts 77°
2026-04-30 06:48 31.09998 121.95452 6058 ft 255 kts 113°
2026-04-30 06:48 31.08907 121.97033 5820 ft 250 kts 147°
2026-04-30 06:49 31.07363 121.97864 5702 ft 244 kts 163°
2026-04-30 06:49 31.05727 121.98474 5605 ft 248 kts 164°
2026-04-30 06:49 31.04084 121.99096 5381 ft 247 kts 163°
2026-04-30 06:49 31.02473 121.99614 5249 ft 232 kts 167°
2026-04-30 06:50 31.00955 122.00139 5099 ft 223 kts 164°
2026-04-30 06:50 30.99501 122.00685 4924 ft 217 kts 163°
2026-04-30 06:50 30.98055 122.01009 4587 ft 210 kts 185°
2026-04-30 06:50 30.96695 122.00552 4315 ft 200 kts 215°
2026-04-30 06:51 30.95759 121.99446 4041 ft 189 kts 245°
2026-04-30 06:51 30.95446 121.98003 3681 ft 184 kts 276°
2026-04-30 06:51 30.95658 121.96547 3348 ft 183 kts 285°
2026-04-30 06:51 30.95954 121.95116 3076 ft 181 kts 286°
2026-04-30 06:52 30.96240 121.93733 2951 ft 172 kts 286°
2026-04-30 06:52 30.96534 121.92349 2924 ft 180 kts 287°
2026-04-30 06:52 30.96832 121.90922 2921 ft 182 kts 287°
2026-04-30 06:52 30.97131 121.89493 2893 ft 182 kts 286°
2026-04-30 06:53 30.97435 121.88060 2919 ft 183 kts 287°
2026-04-30 06:53 30.97769 121.86629 2902 ft 181 kts 296°
2026-04-30 06:53 30.98582 121.85594 2886 ft 174 kts 334°
2026-04-30 06:53 30.99692 121.85025 2725 ft 179 kts 335°
2026-04-30 06:54 31.00798 121.84448 2497 ft 169 kts 338°
2026-04-30 06:54 31.01864 121.83995 2256 ft 159 kts 341°
2026-04-30 06:54 31.02899 121.83589 2079 ft 153 kts 341°
2026-04-30 06:54 31.03874 121.83220 1837 ft 140 kts 341°
2026-04-30 06:55 31.04767 121.82888 1707 ft 134 kts 341°
2026-04-30 06:55 31.05664 121.82549 1489 ft 137 kts 341°
2026-04-30 06:55 31.06565 121.82206 1305 ft 137 kts 341°
2026-04-30 06:55 31.07476 121.81864 1115 ft 138 kts 341°
2026-04-30 06:56 31.08391 121.81518 942 ft 137 kts 342°
2026-04-30 06:56 31.09305 121.81189 694 ft 139 kts 344°
2026-04-30 06:56 31.10215 121.80855 536 ft 135 kts 341°
2026-04-30 06:56 31.11098 121.80503 408 ft 133 kts 342°
2026-04-30 06:57 31.11991 121.80170 238 ft 137 kts 342°
2026-04-30 06:57 31.12881 121.79823 65 ft 135 kts 343°
2026-04-30 06:57 31.13737 121.79497 27 ft 120 kts 341°
2026-04-30 06:57 31.14401 121.79249 27 ft 78 kts 342°
2026-04-30 06:58 31.14781 121.79108 30 ft 41 kts 342°
2026-04-30 06:58 31.14974 121.79047 29 ft 22 kts 359°
2026-04-30 06:58 31.15118 121.79075 28 ft 17 kts 12°
2026-04-30 06:58 31.15225 121.79101 27 ft 14 kts 11°
2026-04-30 06:59 31.15324 121.79110 27 ft 14 kts 355°
2026-04-30 06:59 31.15421 121.79083 27 ft 14 kts 342°
2026-04-30 06:59 31.15515 121.79048 27 ft 14 kts 342°
2026-04-30 06:59 31.15587 121.79023 27 ft 5 kts 356°
2026-04-30 07:00 31.15619 121.79049 27 ft 6 kts 56°
2026-04-30 07:00 31.15635 121.79095 27 ft 7 kts 70°
2026-04-30 07:00 31.15650 121.79149 28 ft 7 kts 72°
2026-04-30 07:00 31.15667 121.79208 28 ft 8 kts 71°
2026-04-30 07:01 31.15683 121.79274 28 ft 9 kts 83°
2026-04-30 07:01 31.15649 121.79331 28 ft 9 kts 150°
2026-04-30 07:01 31.15585 121.79358 28 ft 10 kts 162°
2026-04-30 07:01 31.15512 121.79386 28 ft 11 kts 162°
2026-04-30 07:02 31.15433 121.79415 28 ft 13 kts 162°
2026-04-30 07:02 31.15346 121.79448 28 ft 14 kts 161°
2026-04-30 07:02 31.15254 121.79483 28 ft 14 kts 162°
2026-04-30 07:02 31.15158 121.79519 28 ft 12 kts 162°
2026-04-30 07:03 31.15095 121.79543 28 ft 4 kts 162°
2026-04-30 07:03 31.15082 121.79548 28 ft 0 kts 162°
2026-04-30 07:03 31.15079 121.79549 28 ft 1 kts 162°
2026-04-30 07:03 31.15070 121.79552 28 ft 2 kts 162°
2026-04-30 07:04 31.15057 121.79563 28 ft 3 kts 126°
2026-04-30 07:04 31.15053 121.79588 28 ft 4 kts 95°
2026-04-30 07:04 31.15054 121.79608 28 ft 3 kts 81°
2026-04-30 07:04 31.15059 121.79632 28 ft 2 kts 76°
2026-04-30 07:05 31.15066 121.79661 28 ft 1 kts 73°
2026-04-30 07:05 31.15068 121.79671 28 ft 0 kts 73°
2026-04-30 07:05 31.15069 121.79674 28 ft 0 kts 73°